| time (UTC) | temp F | wind direction | speed MPH | gust MPH | rain 1hr in | rain 24hr in | rain mn in | humidity % | barometer mb |
| 20260901045855 | 76 | 215 | 0.0 | 0.0 | 0.00 | 0.09 | 0.00 | 88 | 1011.1 |
| 20260901045748 | 76 | 215 | 0.0 | 0.0 | 0.00 | 0.09 | 0.00 | 88 | 1011.1 |
| 20260901045646 | 76 | 215 | 0.0 | 0.0 | 0.00 | 0.09 | 0.00 | 88 | 1011.2 |
| 20260901045542 | 76 | 184 | 0.0 | 0.0 | 0.00 | 0.09 | 0.00 | 88 | 1011.2 |
| 20260901045215 | 76 | 183 | 0.0 | 0.0 | 0.00 | 0.09 | 0.00 | 88 | 1011.2 |
| 20260901045110 | 76 | 184 | 0.0 | 0.0 | 0.00 | 0.09 | 0.00 | 88 | 1011.2 |
| 20260901044746 | 76 | 203 | 0.0 | 0.0 | 0.00 | 0.09 | 0.00 | 88 | 1011.2 |
| 20260901044421 | 76 | 190 | 0.0 | 0.0 | 0.00 | 0.09 | 0.00 | 88 | 1011.1 |
| 20260901044315 | 76 | 175 | 0.0 | 0.0 | 0.00 | 0.09 | 0.00 | 88 | 1011.1 |
| 20260901044214 | 76 | 186 | 0.0 | 0.0 | 0.00 | 0.09 | 0.00 | 88 | 1011.1 |
| 20260901044105 | 76 | 224 | 0.0 | 0.0 | 0.00 | 0.09 | 0.00 | 88 | 1011.1 |
| 20260901043959 | 76 | 224 | 0.0 | 0.0 | 0.00 | 0.09 | 0.00 | 88 | 1011.1 |
| 20260901043851 | 76 | 227 | 0.0 | 0.0 | 0.00 | 0.09 | 0.00 | 89 | 1011.1 |
| 20260901043748 | 76 | 186 | 0.0 | 1.0 | 0.00 | 0.09 | 0.00 | 89 | 1011.1 |
| 20260901043641 | 76 | 180 | 0.0 | 1.0 | 0.00 | 0.09 | 0.00 | 89 | 1011.1 |
| 20260901043539 | 76 | 180 | 0.0 | 0.0 | 0.00 | 0.09 | 0.00 | 89 | 1011.1 |
| 20260901043434 | 76 | 180 | 0.0 | 1.0 | 0.00 | 0.09 | 0.00 | 89 | 1011.1 |
| 20260901043330 | 76 | 180 | 0.0 | 1.0 | 0.00 | 0.09 | 0.00 | 89 | 1011.2 |
| 20260901043008 | 76 | 224 | 0.0 | 0.0 | 0.00 | 0.09 | 0.00 | 89 | 1011.1 |
| 20260901042905 | 76 | 225 | 0.0 | 0.0 | 0.00 | 0.09 | 0.00 | 89 | 1011.1 |
| 20260901042759 | 75 | 225 | 0.0 | 2.0 | 0.00 | 0.09 | 0.00 | 89 | 1011.1 |
| 20260901042654 | 75 | 223 | 0.0 | 2.0 | 0.00 | 0.09 | 0.00 | 89 | 1011.1 |
| 20260901042547 | 75 | 220 | 0.0 | 0.0 | 0.00 | 0.09 | 0.00 | 89 | 1011.1 |
| 20260901041959 | 75 | 195 | 0.0 | 0.0 | 0.00 | 0.09 | 0.00 | 89 | 1011.0 |
| 20260901041853 | 75 | 196 | 0.0 | 0.0 | 0.00 | 0.09 | 0.00 | 89 | 1011.1 |
| 20260901041751 | 75 | 261 | 0.0 | 0.0 | 0.00 | 0.09 | 0.00 | 89 | 1011.1 |
| 20260901041644 | 75 | 265 | 0.0 | 0.0 | 0.00 | 0.09 | 0.00 | 89 | 1011.1 |
| 20260901041539 | 75 | 183 | 0.0 | 0.0 | 0.00 | 0.09 | 0.00 | 89 | 1011.1 |
| 20260901041432 | 75 | 183 | 0.0 | 0.0 | 0.00 | 0.09 | 0.00 | 89 | 1011.1 |
| 20260901041326 | 75 | 182 | 0.0 | 1.0 | 0.00 | 0.09 | 0.00 | 89 | 1011.1 |
| 20260901041220 | 75 | 183 | 0.0 | 1.0 | 0.00 | 0.09 | 0.00 | 89 | 1011.0 |
| 20260901040637 | 75 | 190 | 0.0 | 0.0 | 0.00 | 0.09 | 0.00 | 89 | 1011.0 |
| 20260901040312 | 75 | 190 | 0.0 | 0.0 | 0.00 | 0.09 | 0.00 | 89 | 1011.0 |
| 20260901040206 | 75 | 173 | 0.0 | 0.0 | 0.00 | 0.09 | 0.00 | 89 | 1011.0 |
| 20260901035846 | 75 | 174 | 0.0 | 0.0 | 0.00 | 0.09 | 0.10 | 89 | 1011.1 |
| 20260901035738 | 75 | 174 | 0.0 | 0.0 | 0.00 | 0.09 | 0.10 | 89 | 1011.1 |
| 20260901034932 | 75 | 163 | 0.0 | 0.0 | 0.00 | 0.09 | 0.10 | 89 | 1011.2 |
| 20260901034829 | 75 | 163 | 0.0 | 0.0 | 0.00 | 0.09 | 0.10 | 89 | 1011.2 |
| 20260901034505 | 75 | 161 | 0.0 | 0.0 | 0.00 | 0.09 | 0.10 | 89 | 1011.4 |
| 20260901034401 | 75 | 161 | 0.0 | 0.0 | 0.00 | 0.09 | 0.10 | 88 | 1011.4 |
| 20260901034253 | 75 | 161 | 0.0 | 0.0 | 0.00 | 0.09 | 0.10 | 88 | 1011.4 |
| 20260901033933 | 75 | 161 | 0.0 | 0.0 | 0.00 | 0.09 | 0.10 | 88 | 1011.5 |
| 20260901033829 | 75 | 161 | 0.0 | 0.0 | 0.00 | 0.09 | 0.10 | 88 | 1011.5 |
| 20260901033722 | 75 | 161 | 0.0 | 0.0 | 0.00 | 0.09 | 0.10 | 88 | 1011.5 |
| 20260901033618 | 75 | 161 | 0.0 | 0.0 | 0.00 | 0.09 | 0.10 | 88 | 1011.5 |
| 20260901033513 | 75 | 161 | 0.0 | 0.0 | 0.00 | 0.09 | 0.10 | 88 | 1011.6 |
| 20260901033150 | 75 | 161 | 0.0 | 0.0 | 0.00 | 0.09 | 0.10 | 88 | 1011.5 |
| 20260901032828 | 75 | 161 | 0.0 | 0.0 | 0.00 | 0.09 | 0.10 | 88 | 1011.6 |
| 20260901032725 | 75 | 161 | 0.0 | 0.0 | 0.00 | 0.09 | 0.10 | 88 | 1011.6 |
| 20260901032622 | 75 | 161 | 0.0 | 0.0 | 0.00 | 0.09 | 0.10 | 88 | 1011.6 |
| 20260901032520 | 75 | 161 | 0.0 | 0.0 | 0.00 | 0.09 | 0.10 | 88 | 1011.6 |
| 20260901032158 | 75 | 181 | 0.0 | 0.0 | 0.00 | 0.09 | 0.10 | 88 | 1011.6 |
| 20260901031833 | 75 | 206 | 0.0 | 0.0 | 0.00 | 0.09 | 0.10 | 87 | 1011.6 |
| 20260901031727 | 75 | 207 | 0.0 | 0.0 | 0.00 | 0.09 | 0.10 | 87 | 1011.7 |
| 20260901031624 | 75 | 207 | 0.0 | 0.0 | 0.00 | 0.09 | 0.10 | 87 | 1011.7 |
| 20260901031518 | 75 | 207 | 0.0 | 0.0 | 0.00 | 0.09 | 0.10 | 87 | 1011.6 |
| 20260901030937 | 75 | 236 | 0.0 | 0.0 | 0.00 | 0.09 | 0.10 | 87 | 1011.6 |
| 20260901030612 | 75 | 219 | 0.0 | 0.0 | 0.00 | 0.09 | 0.10 | 87 | 1011.5 |
| 20260901030504 | 75 | 219 | 0.0 | 0.0 | 0.00 | 0.09 | 0.10 | 87 | 1011.5 |
| 20260901030359 | 75 | 219 | 0.0 | 0.0 | 0.00 | 0.09 | 0.10 | 87 | 1011.6 |
| 20260901030257 | 75 | 219 | 0.0 | 0.0 | 0.00 | 0.09 | 0.10 | 87 | 1011.6 |
| 20260901030150 | 75 | 219 | 0.0 | 0.0 | 0.00 | 0.09 | 0.10 | 87 | 1011.5 |
| 20260901030047 | 75 | 219 | 0.0 | 0.0 | 0.00 | 0.09 | 0.10 | 87 | 1011.5 |
| 20260901025726 | 75 | 160 | 0.0 | 0.0 | 0.00 | 0.09 | 0.10 | 87 | 1011.6 |
| 20260901025622 | 75 | 153 | 0.0 | 0.0 | 0.00 | 0.09 | 0.10 | 86 | 1011.5 |
| 20260901025518 | 75 | 206 | 0.0 | 0.0 | 0.00 | 0.09 | 0.10 | 86 | 1011.5 |
| 20260901025412 | 75 | 205 | 0.0 | 0.0 | 0.00 | 0.09 | 0.10 | 86 | 1011.5 |
| 20260901025309 | 75 | 207 | 0.0 | 0.0 | 0.00 | 0.09 | 0.10 | 86 | 1011.5 |
| 20260901024725 | 75 | 201 | 0.0 | 6.0 | 0.00 | 0.09 | 0.10 | 86 | 1011.5 |
| 20260901024621 | 75 | 208 | 0.0 | 6.0 | 0.00 | 0.09 | 0.10 | 86 | 1011.5 |
| 20260901024517 | 75 | 187 | 0.0 | 0.0 | 0.00 | 0.09 | 0.10 | 86 | 1011.5 |
| 20260901024409 | 75 | 190 | 0.0 | 4.0 | 0.00 | 0.09 | 0.10 | 86 | 1011.5 |
| 20260901024303 | 75 | 192 | 0.0 | 4.0 | 0.00 | 0.09 | 0.10 | 86 | 1011.5 |
| 20260901024201 | 75 | 163 | 0.0 | 2.0 | 0.00 | 0.09 | 0.10 | 86 | 1011.5 |
| 20260901024056 | 75 | 163 | 0.0 | 2.0 | 0.00 | 0.09 | 0.10 | 86 | 1011.5 |
| 20260901023952 | 75 | 169 | 0.0 | 2.0 | 0.00 | 0.09 | 0.10 | 86 | 1011.5 |
| 20260901023846 | 75 | 171 | 0.0 | 0.0 | 0.00 | 0.09 | 0.10 | 86 | 1011.5 |
| 20260901023741 | 75 | 169 | 0.0 | 3.0 | 0.00 | 0.09 | 0.10 | 86 | 1011.5 |
| 20260901023639 | 75 | 130 | 0.0 | 3.0 | 0.00 | 0.09 | 0.10 | 86 | 1011.5 |
| 20260901023533 | 75 | 174 | 0.0 | 0.0 | 0.00 | 0.09 | 0.10 | 86 | 1011.5 |
| 20260901023428 | 75 | 172 | 0.0 | 0.0 | 0.00 | 0.09 | 0.10 | 86 | 1011.6 |
| 20260901023324 | 75 | 172 | 0.0 | 3.0 | 0.00 | 0.09 | 0.10 | 86 | 1011.6 |
| 20260901022956 | 75 | 186 | 0.0 | 2.0 | 0.00 | 0.09 | 0.10 | 86 | 1011.6 |
| 20260901022851 | 75 | 166 | 0.0 | 1.0 | 0.00 | 0.09 | 0.10 | 86 | 1011.6 |
| 20260901022744 | 75 | 166 | 0.0 | 1.0 | 0.00 | 0.09 | 0.10 | 86 | 1011.6 |
| 20260901022638 | 75 | 192 | 0.0 | 0.0 | 0.00 | 0.09 | 0.10 | 86 | 1011.6 |
| 20260901022531 | 75 | 193 | 0.0 | 0.0 | 0.00 | 0.09 | 0.10 | 86 | 1011.6 |
| 20260901022426 | 75 | 194 | 0.0 | 0.0 | 0.00 | 0.09 | 0.10 | 86 | 1011.6 |
| 20260901022319 | 75 | 195 | 0.0 | 0.0 | 0.00 | 0.09 | 0.10 | 86 | 1011.6 |
| 20260901022211 | 75 | 197 | 0.0 | 0.0 | 0.00 | 0.09 | 0.10 | 86 | 1011.7 |
| 20260901021846 | 75 | 200 | 0.0 | 1.0 | 0.00 | 0.09 | 0.10 | 86 | 1011.5 |
| 20260901021742 | 75 | 202 | 0.0 | 1.0 | 0.00 | 0.09 | 0.10 | 86 | 1011.6 |
| 20260901021639 | 75 | 180 | 0.0 | 0.0 | 0.00 | 0.09 | 0.10 | 86 | 1011.6 |
| 20260901021316 | 75 | 163 | 0.0 | 0.0 | 0.00 | 0.09 | 0.10 | 86 | 1011.6 |
| 20260901020951 | 75 | 188 | 0.0 | 2.0 | 0.00 | 0.09 | 0.10 | 86 | 1011.5 |
| 20260901020849 | 75 | 190 | 0.0 | 2.0 | 0.00 | 0.09 | 0.10 | 86 | 1011.4 |
| 20260901020743 | 75 | 194 | 0.0 | 0.0 | 0.00 | 0.09 | 0.10 | 86 | 1011.4 |
| 20260901020637 | 75 | 186 | 0.0 | 0.0 | 0.00 | 0.09 | 0.10 | 86 | 1011.4 |
| 20260901020530 | 75 | 182 | 0.0 | 0.0 | 0.00 | 0.09 | 0.10 | 86 | 1011.5 |
| 20260901020427 | 75 | 182 | 0.0 | 0.0 | 0.00 | 0.09 | 0.10 | 86 | 1011.5 |
| 20260901015957 | 75 | 199 | 0.0 | 3.0 | 0.00 | 0.09 | 0.10 | 86 | 1011.4 |
| 20260901015850 | 75 | 186 | 0.0 | 0.0 | 0.00 | 0.09 | 0.10 | 86 | 1011.4 |
| 20260901015743 | 75 | 187 | 0.0 | 0.0 | 0.00 | 0.09 | 0.10 | 86 | 1011.3 |
| 20260901015639 | 75 | 194 | 0.0 | 0.0 | 0.00 | 0.09 | 0.10 | 86 | 1011.3 |
| 20260901015313 | 75 | 199 | 0.0 | 2.0 | 0.00 | 0.09 | 0.10 | 86 | 1011.4 |
| 20260901015206 | 75 | 175 | 0.0 | 0.0 | 0.00 | 0.09 | 0.10 | 86 | 1011.4 |
| 20260901015059 | 75 | 175 | 0.0 | 0.0 | 0.00 | 0.09 | 0.10 | 86 | 1011.4 |
| 20260901014951 | 75 | 174 | 0.0 | 0.0 | 0.00 | 0.09 | 0.10 | 86 | 1011.4 |
| 20260901014405 | 74 | 173 | 0.0 | 0.0 | 0.00 | 0.09 | 0.10 | 87 | 1011.4 |
| 20260901014259 | 74 | 173 | 0.0 | 0.0 | 0.00 | 0.09 | 0.10 | 87 | 1011.4 |
| 20260901014152 | 74 | 173 | 0.0 | 0.0 | 0.00 | 0.09 | 0.10 | 87 | 1011.3 |
| 20260901014045 | 74 | 173 | 0.0 | 0.0 | 0.00 | 0.09 | 0.10 | 87 | 1011.3 |
| 20260901013940 | 74 | 180 | 0.0 | 0.0 | 0.00 | 0.09 | 0.10 | 87 | 1011.3 |
| 20260901013835 | 74 | 180 | 0.0 | 0.0 | 0.00 | 0.09 | 0.10 | 87 | 1011.2 |
| 20260901013728 | 74 | 180 | 0.0 | 0.0 | 0.00 | 0.09 | 0.10 | 87 | 1011.3 |
| 20260901013623 | 74 | 181 | 0.0 | 3.0 | 0.00 | 0.09 | 0.10 | 87 | 1011.3 |
| 20260901013519 | 74 | 181 | 0.0 | 3.0 | 0.00 | 0.09 | 0.10 | 87 | 1011.3 |
| 20260901013413 | 74 | 171 | 0.0 | 2.0 | 0.00 | 0.09 | 0.10 | 87 | 1011.3 |
| 20260901013310 | 74 | 207 | 0.0 | 2.0 | 0.00 | 0.09 | 0.10 | 87 | 1011.3 |
| 20260901012726 | 74 | 168 | 0.0 | 0.0 | 0.00 | 0.09 | 0.10 | 87 | 1011.1 |
| 20260901012619 | 74 | 168 | 0.0 | 0.0 | 0.00 | 0.09 | 0.10 | 87 | 1011.1 |
| 20260901012516 | 74 | 169 | 0.0 | 0.0 | 0.00 | 0.09 | 0.10 | 87 | 1011.2 |
| 20260901012151 | 74 | 175 | 0.0 | 0.0 | 0.00 | 0.09 | 0.10 | 87 | 1011.1 |
| 20260901011830 | 74 | 192 | 0.0 | 0.0 | 0.00 | 0.09 | 0.10 | 87 | 1011.2 |
| 20260901011727 | 74 | 166 | 0.0 | 0.0 | 0.00 | 0.09 | 0.10 | 87 | 1011.2 |
| 20260901011623 | 74 | 160 | 0.0 | 0.0 | 0.00 | 0.09 | 0.10 | 87 | 1011.1 |
| 20260901011520 | 74 | 159 | 0.0 | 0.0 | 0.00 | 0.09 | 0.10 | 87 | 1011.1 |
| 20260901011415 | 74 | 159 | 0.0 | 0.0 | 0.00 | 0.09 | 0.10 | 87 | 1011.1 |
| 20260901011311 | 74 | 159 | 0.0 | 0.0 | 0.00 | 0.09 | 0.10 | 88 | 1011.1 |
| 20260901011204 | 74 | 159 | 0.0 | 0.0 | 0.00 | 0.09 | 0.10 | 88 | 1011.1 |
| 20260901011058 | 74 | 146 | 0.0 | 1.0 | 0.00 | 0.09 | 0.10 | 88 | 1011.1 |
| 20260901010954 | 73 | 186 | 0.0 | 1.0 | 0.00 | 0.09 | 0.10 | 88 | 1011.1 |
| 20260901010851 | 73 | 165 | 0.0 | 0.0 | 0.00 | 0.09 | 0.10 | 88 | 1011.1 |
| 20260901010745 | 73 | 165 | 0.0 | 0.0 | 0.00 | 0.09 | 0.10 | 88 | 1011.0 |
| 20260901010639 | 73 | 165 | 0.0 | 0.0 | 0.00 | 0.09 | 0.10 | 88 | 1011.0 |
| 20260901010535 | 73 | 165 | 0.0 | 0.0 | 0.00 | 0.09 | 0.10 | 88 | 1011.0 |
| 20260901010434 | 73 | 165 | 0.0 | 0.0 | 0.00 | 0.09 | 0.10 | 88 | 1011.0 |
| 20260901010330 | 73 | 165 | 0.0 | 0.0 | 0.00 | 0.09 | 0.10 | 88 | 1011.0 |
| 20260901010223 | 73 | 164 | 0.0 | 0.0 | 0.00 | 0.09 | 0.10 | 88 | 1010.9 |
| 20260901010120 | 73 | 184 | 0.0 | 0.0 | 0.00 | 0.09 | 0.10 | 88 | 1010.9 |
| 20260901005801 | 73 | 198 | 0.0 | 0.0 | 0.00 | 0.09 | 0.10 | 88 | 1010.9 |
| 20260901005657 | 73 | 175 | 0.0 | 0.0 | 0.00 | 0.09 | 0.10 | 88 | 1010.9 |
| 20260901005333 | 73 | 178 | 0.0 | 0.0 | 0.00 | 0.09 | 0.10 | 88 | 1010.8 |
| 20260901005227 | 73 | 176 | 0.0 | 0.0 | 0.00 | 0.09 | 0.10 | 88 | 1010.8 |
| 20260901005123 | 73 | 175 | 0.0 | 0.0 | 0.00 | 0.09 | 0.10 | 88 | 1010.8 |
| 20260901005018 | 73 | 179 | 0.0 | 0.0 | 0.00 | 0.09 | 0.10 | 88 | 1010.9 |
| 20260901004915 | 73 | 179 | 0.0 | 0.0 | 0.00 | 0.09 | 0.10 | 88 | 1010.9 |
| 20260901004809 | 73 | 179 | 0.0 | 0.0 | 0.00 | 0.09 | 0.10 | 88 | 1011.0 |
| 20260901004703 | 73 | 168 | 0.0 | 0.0 | 0.00 | 0.09 | 0.10 | 88 | 1011.0 |
| 20260901004121 | 73 | 166 | 0.0 | 0.0 | 0.00 | 0.09 | 0.10 | 88 | 1011.0 |
| 20260901004019 | 73 | 166 | 0.0 | 0.0 | 0.00 | 0.09 | 0.10 | 88 | 1010.9 |
| 20260901003916 | 73 | 166 | 0.0 | 0.0 | 0.00 | 0.09 | 0.10 | 89 | 1011.0 |
| 20260901003814 | 73 | 166 | 0.0 | 0.0 | 0.00 | 0.09 | 0.10 | 88 | 1011.0 |
| 20260901003449 | 73 | 167 | 0.0 | 0.0 | 0.00 | 0.09 | 0.10 | 88 | 1010.9 |
| 20260901003344 | 73 | 166 | 0.0 | 0.0 | 0.00 | 0.09 | 0.10 | 88 | 1010.9 |
| 20260901003021 | 73 | 163 | 0.0 | 0.0 | 0.00 | 0.09 | 0.10 | 89 | 1010.7 |
| 20260901002916 | 73 | 161 | 0.0 | 0.0 | 0.00 | 0.09 | 0.10 | 89 | 1010.7 |
| 20260901002812 | 73 | 177 | 0.0 | 0.0 | 0.00 | 0.09 | 0.10 | 89 | 1010.7 |
| 20260901002706 | 73 | 173 | 0.0 | 0.0 | 0.00 | 0.09 | 0.10 | 89 | 1010.7 |
| 20260901002559 | 73 | 173 | 0.0 | 0.0 | 0.00 | 0.09 | 0.10 | 89 | 1010.6 |
| 20260901002453 | 73 | 161 | 0.0 | 0.0 | 0.00 | 0.09 | 0.10 | 88 | 1010.7 |
| 20260901002347 | 73 | 161 | 0.0 | 0.0 | 0.00 | 0.09 | 0.10 | 89 | 1010.7 |
| 20260901002243 | 73 | 161 | 0.0 | 0.0 | 0.00 | 0.09 | 0.10 | 89 | 1010.7 |
| 20260901001916 | 73 | 186 | 0.0 | 0.0 | 0.00 | 0.09 | 0.10 | 89 | 1010.7 |
| 20260901001812 | 73 | 175 | 0.0 | 0.0 | 0.00 | 0.09 | 0.10 | 89 | 1010.7 |
| 20260901001708 | 73 | 175 | 0.0 | 0.0 | 0.00 | 0.09 | 0.10 | 89 | 1010.7 |
| 20260901001606 | 73 | 146 | 0.0 | 0.0 | 0.00 | 0.09 | 0.10 | 89 | 1010.7 |
| 20260901001502 | 73 | 159 | 0.0 | 0.0 | 0.00 | 0.09 | 0.10 | 89 | 1010.7 |
| 20260901001357 | 73 | 166 | 0.0 | 0.0 | 0.00 | 0.09 | 0.10 | 89 | 1010.6 |
| 20260901001250 | 73 | 149 | 0.0 | 0.0 | 0.00 | 0.09 | 0.10 | 89 | 1010.6 |
| 20260901001145 | 73 | 155 | 0.0 | 1.0 | 0.00 | 0.09 | 0.10 | 89 | 1010.6 |
| 20260901001039 | 73 | 160 | 0.0 | 1.0 | 0.00 | 0.09 | 0.10 | 89 | 1010.6 |
| 20260901000937 | 73 | 179 | 0.0 | 2.0 | 0.00 | 0.09 | 0.10 | 89 | 1010.6 |
| 20260901000832 | 73 | 165 | 0.0 | 2.0 | 0.00 | 0.09 | 0.10 | 89 | 1010.7 |
| 20260901000728 | 73 | 137 | 0.0 | 5.0 | 0.00 | 0.09 | 0.10 | 89 | 1010.7 |
| 20260901000622 | 73 | 142 | 0.0 | 5.0 | 0.00 | 0.09 | 0.10 | 89 | 1010.7 |
| 20260901000518 | 73 | 165 | 0.0 | 5.0 | 0.00 | 0.09 | 0.10 | 89 | 1010.7 |
| 20260901000413 | 73 | 144 | 0.0 | 5.0 | 0.00 | 0.09 | 0.10 | 89 | 1010.7 |
| 20260901000313 | 73 | 170 | 0.0 | 5.0 | 0.00 | 0.09 | 0.10 | 89 | 1010.7 |
| 20260901000204 | 73 | 121 | 0.0 | 5.0 | 0.00 | 0.09 | 0.10 | 89 | 1010.7 |
| 20260901000058 | 73 | 166 | 0.0 | 0.0 | 0.00 | 0.09 | 0.10 | 89 | 1010.7 |
| 20260831235953 | 73 | 163 | 0.0 | 0.0 | 0.00 | 0.09 | 0.10 | 89 | 1010.7 |
| 20260831235634 | 73 | 159 | 0.0 | 0.0 | 0.00 | 0.09 | 0.10 | 89 | 1010.7 |
| 20260831235531 | 73 | 159 | 0.0 | 4.0 | 0.00 | 0.09 | 0.10 | 89 | 1010.7 |
| 20260831235424 | 73 | 172 | 0.0 | 4.0 | 0.00 | 0.09 | 0.10 | 89 | 1010.8 |
| 20260831235320 | 73 | 146 | 0.0 | 3.0 | 0.00 | 0.09 | 0.10 | 89 | 1010.8 |
| 20260831235215 | 73 | 163 | 0.0 | 4.0 | 0.00 | 0.09 | 0.10 | 89 | 1010.7 |
| 20260831235112 | 73 | 145 | 0.0 | 4.0 | 0.00 | 0.09 | 0.10 | 89 | 1010.9 |
| 20260831234744 | 73 | 187 | 0.0 | 5.0 | 0.00 | 0.09 | 0.10 | 89 | 1011.1 |
| 20260831234638 | 73 | 166 | 0.0 | 5.0 | 0.00 | 0.09 | 0.10 | 89 | 1011.0 |
| 20260831233835 | 73 | 154 | 0.0 | 4.0 | 0.00 | 0.09 | 0.10 | 89 | 1010.9 |
| 20260831233507 | 73 | 115 | 0.0 | 3.0 | 0.00 | 0.09 | 0.10 | 89 | 1010.9 |
| 20260831233405 | 73 | 133 | 0.0 | 2.0 | 0.00 | 0.09 | 0.10 | 89 | 1010.9 |
| 20260831233302 | 73 | 151 | 0.0 | 2.0 | 0.00 | 0.09 | 0.10 | 89 | 1011.0 |
| 20260831233154 | 73 | 138 | 0.0 | 2.0 | 0.00 | 0.09 | 0.10 | 89 | 1011.1 |
| 20260831232832 | 73 | 134 | 0.0 | 4.0 | 0.00 | 0.09 | 0.10 | 89 | 1011.2 |
| 20260831232725 | 73 | 163 | 0.0 | 4.0 | 0.00 | 0.09 | 0.10 | 89 | 1011.2 |
| 20260831232620 | 73 | 151 | 0.0 | 4.0 | 0.00 | 0.09 | 0.10 | 89 | 1011.2 |
| 20260831232515 | 73 | 166 | 0.0 | 4.0 | 0.00 | 0.09 | 0.10 | 89 | 1011.2 |
| 20260831232411 | 73 | 140 | 0.0 | 4.0 | 0.00 | 0.09 | 0.10 | 89 | 1011.2 |
| 20260831232306 | 73 | 159 | 0.0 | 4.0 | 0.00 | 0.09 | 0.10 | 89 | 1011.2 |
| 20260831232157 | 73 | 161 | 0.0 | 4.0 | 0.00 | 0.09 | 0.10 | 89 | 1011.2 |
| 20260831232055 | 73 | 155 | 0.0 | 4.0 | 0.00 | 0.09 | 0.10 | 89 | 1011.3 |
| 20260831231949 | 73 | 153 | 0.0 | 4.0 | 0.00 | 0.09 | 0.10 | 89 | 1011.3 |
| 20260831231842 | 73 | 155 | 0.0 | 4.0 | 0.00 | 0.09 | 0.10 | 89 | 1011.4 |
| 20260831231739 | 73 | 138 | 0.0 | 3.0 | 0.00 | 0.09 | 0.10 | 89 | 1011.5 |
| 20260831231636 | 73 | 157 | 0.0 | 3.0 | 0.00 | 0.09 | 0.10 | 89 | 1011.6 |
| 20260831231531 | 73 | 143 | 0.0 | 0.0 | 0.00 | 0.09 | 0.10 | 89 | 1011.6 |
| 20260831231425 | 73 | 150 | 0.0 | 0.0 | 0.00 | 0.09 | 0.10 | 89 | 1011.5 |
| 20260831231320 | 73 | 146 | 0.0 | 0.0 | 0.00 | 0.09 | 0.10 | 89 | 1011.6 |
| 20260831231213 | 73 | 169 | 0.0 | 0.0 | 0.00 | 0.09 | 0.10 | 89 | 1011.7 |
| 20260831231108 | 73 | 169 | 0.0 | 0.0 | 0.00 | 0.09 | 0.10 | 89 | 1011.7 |
| 20260831231004 | 73 | 163 | 0.0 | 0.0 | 0.00 | 0.09 | 0.10 | 89 | 1011.7 |
| 20260831230901 | 73 | 148 | 0.0 | 0.0 | 0.00 | 0.09 | 0.10 | 89 | 1011.7 |
| 20260831230534 | 73 | 153 | 0.0 | 0.0 | 0.00 | 0.09 | 0.10 | 89 | 1011.7 |
| 20260831230214 | 73 | 149 | 0.0 | 0.0 | 0.00 | 0.09 | 0.10 | 89 | 1011.7 |
| 20260831230110 | 73 | 149 | 0.0 | 0.0 | 0.00 | 0.09 | 0.10 | 89 | 1011.8 |
| 20260831230006 | 73 | 149 | 0.0 | 0.0 | 0.00 | 0.09 | 0.10 | 89 | 1011.7 |
| 20260831225904 | 73 | 133 | 0.0 | 0.0 | 0.00 | 0.09 | 0.10 | 89 | 1011.7 |
| 20260831225800 | 73 | 151 | 0.0 | 0.0 | 0.00 | 0.09 | 0.10 | 89 | 1011.6 |
| 20260831225654 | 73 | 151 | 0.0 | 0.0 | 0.00 | 0.09 | 0.10 | 89 | 1011.6 |
| 20260831225551 | 73 | 135 | 0.0 | 0.0 | 0.00 | 0.09 | 0.10 | 89 | 1011.6 |
| 20260831225448 | 73 | 146 | 0.0 | 0.0 | 0.00 | 0.09 | 0.10 | 89 | 1011.6 |
| 20260831225345 | 73 | 145 | 0.0 | 0.0 | 0.00 | 0.09 | 0.10 | 89 | 1011.6 |
| 20260831225236 | 73 | 143 | 0.0 | 0.0 | 0.00 | 0.09 | 0.10 | 89 | 1011.6 |
| 20260831225130 | 73 | 147 | 0.0 | 0.0 | 0.00 | 0.09 | 0.10 | 89 | 1011.6 |
| 20260831225026 | 73 | 147 | 0.0 | 0.0 | 0.00 | 0.09 | 0.10 | 89 | 1011.6 |
| 20260831224924 | 73 | 134 | 0.0 | 0.0 | 0.00 | 0.09 | 0.10 | 89 | 1011.6 |
| 20260831224818 | 73 | 132 | 0.0 | 0.0 | 0.00 | 0.09 | 0.10 | 89 | 1011.7 |
| 20260831224711 | 73 | 158 | 0.0 | 0.0 | 0.00 | 0.09 | 0.10 | 89 | 1011.6 |
| 20260831224607 | 73 | 143 | 0.0 | 2.0 | 0.00 | 0.09 | 0.10 | 89 | 1011.6 |
| 20260831224501 | 73 | 121 | 0.0 | 2.0 | 0.00 | 0.09 | 0.10 | 89 | 1011.6 |
| 20260831224355 | 73 | 132 | 0.0 | 0.0 | 0.00 | 0.09 | 0.10 | 89 | 1011.6 |
| 20260831224253 | 73 | 133 | 0.0 | 0.0 | 0.00 | 0.09 | 0.10 | 89 | 1011.6 |
| 20260831224152 | 73 | 137 | 0.0 | 7.0 | 0.00 | 0.09 | 0.10 | 89 | 1011.6 |
| 20260831224048 | 73 | 103 | 0.0 | 7.0 | 0.00 | 0.09 | 0.10 | 89 | 1011.6 |
| 20260831223724 | 73 | 128 | 0.0 | 7.0 | 0.04 | 0.09 | 0.10 | 89 | 1011.3 |
| 20260831223622 | 73 | 117 | 0.0 | 7.0 | 0.04 | 0.09 | 0.10 | 89 | 1011.4 |
| 20260831223257 | 72 | 150 | 0.0 | 8.0 | 0.04 | 0.09 | 0.10 | 89 | 1011.8 |
| 20260831223155 | 72 | 117 | 0.0 | 8.0 | 0.04 | 0.09 | 0.10 | 89 | 1011.9 |
| 20260831223052 | 72 | 146 | 0.0 | 6.0 | 0.04 | 0.09 | 0.10 | 88 | 1011.9 |
| 20260831222945 | 72 | 162 | 0.0 | 6.0 | 0.04 | 0.09 | 0.10 | 88 | 1012.0 |
| 20260831222618 | 72 | 135 | 0.0 | 6.0 | 0.04 | 0.09 | 0.10 | 88 | 1012.0 |
| 20260831222255 | 73 | 125 | 0.0 | 0.0 | 0.04 | 0.09 | 0.10 | 88 | 1012.1 |
| 20260831222152 | 73 | 92 | 0.0 | 0.0 | 0.04 | 0.09 | 0.09 | 88 | 1012.1 |
| 20260831222050 | 73 | 92 | 0.0 | 0.0 | 0.04 | 0.09 | 0.09 | 88 | 1012.2 |
| 20260831221947 | 73 | 92 | 0.0 | 0.0 | 0.04 | 0.09 | 0.09 | 88 | 1012.3 |
| 20260831221844 | 73 | 92 | 0.0 | 0.0 | 0.04 | 0.09 | 0.09 | 87 | 1012.4 |
| 20260831221737 | 73 | 87 | 0.0 | 0.0 | 0.04 | 0.09 | 0.09 | 87 | 1012.5 |
| 20260831221632 | 73 | 87 | 0.0 | 0.0 | 0.04 | 0.09 | 0.09 | 87 | 1012.6 |
| 20260831221529 | 73 | 86 | 0.0 | 0.0 | 0.04 | 0.09 | 0.09 | 87 | 1012.7 |
| 20260831221424 | 73 | 42 | 0.0 | 0.0 | 0.04 | 0.09 | 0.09 | 87 | 1012.8 |
| 20260831221322 | 73 | 42 | 0.0 | 0.0 | 0.04 | 0.09 | 0.09 | 87 | 1013.0 |
| 20260831221216 | 73 | 42 | 0.0 | 0.0 | 0.04 | 0.09 | 0.09 | 87 | 1013.1 |
| 20260831221109 | 73 | 42 | 0.0 | 0.0 | 0.04 | 0.09 | 0.09 | 86 | 1013.3 |
| 20260831221005 | 73 | 42 | 0.0 | 0.0 | 0.04 | 0.09 | 0.09 | 86 | 1013.3 |
| 20260831220637 | 73 | 42 | 0.0 | 0.0 | 0.05 | 0.08 | 0.08 | 86 | 1012.9 |
| 20260831220314 | 73 | 55 | 0.0 | 0.0 | 0.06 | 0.08 | 0.08 | 86 | 1012.5 |
| 20260831215949 | 73 | 72 | 1.0 | 0.0 | 0.08 | 0.08 | 0.08 | 86 | 1012.3 |
| 20260831215842 | 73 | 84 | 1.0 | 0.0 | 0.08 | 0.08 | 0.08 | 87 | 1012.2 |
| 20260831215738 | 73 | 103 | 1.0 | 6.0 | 0.08 | 0.08 | 0.08 | 87 | 1012.1 |
| 20260831215632 | 73 | 116 | 1.0 | 6.0 | 0.08 | 0.08 | 0.08 | 87 | 1012.0 |
| 20260831215524 | 73 | 94 | 1.0 | 6.0 | 0.08 | 0.08 | 0.08 | 87 | 1012.0 |
| 20260831215420 | 73 | 95 | 1.0 | 6.0 | 0.08 | 0.08 | 0.08 | 87 | 1012.0 |
| 20260831215316 | 73 | 113 | 1.0 | 5.0 | 0.05 | 0.06 | 0.06 | 87 | 1012.2 |
| 20260831214733 | 74 | 165 | 0.0 | 6.0 | 0.05 | 0.06 | 0.06 | 87 | 1012.1 |
| 20260831214628 | 74 | 151 | 0.0 | 6.0 | 0.05 | 0.06 | 0.06 | 87 | 1012.1 |
| 20260831214522 | 74 | 191 | 0.0 | 4.0 | 0.05 | 0.06 | 0.06 | 88 | 1012.0 |
| 20260831214420 | 74 | 131 | 0.0 | 4.0 | 0.05 | 0.06 | 0.06 | 88 | 1012.1 |
| 20260831214313 | 74 | 162 | 0.0 | 1.0 | 0.06 | 0.06 | 0.06 | 87 | 1012.2 |
| 20260831214207 | 74 | 163 | 0.0 | 0.0 | 0.06 | 0.06 | 0.06 | 87 | 1012.3 |
| 20260831214104 | 74 | 138 | 0.0 | 0.0 | 0.06 | 0.06 | 0.06 | 87 | 1012.6 |
| 20260831213958 | 74 | 76 | 0.0 | 0.0 | 0.09 | 0.06 | 0.06 | 87 | 1012.6 |
| 20260831213853 | 74 | 76 | 0.0 | 0.0 | 0.10 | 0.06 | 0.06 | 87 | 1012.7 |
| 20260831213527 | 75 | 153 | 0.0 | 0.0 | 0.13 | 0.06 | 0.06 | 87 | 1013.1 |
| 20260831213422 | 75 | 157 | 0.0 | 0.0 | 0.13 | 0.06 | 0.06 | 87 | 1013.3 |
| 20260831213319 | 75 | 157 | 0.0 | 0.0 | 0.13 | 0.04 | 0.06 | 87 | 1013.5 |
| 20260831213216 | 75 | 157 | 0.0 | 0.0 | 0.17 | 0.04 | 0.05 | 87 | 1013.5 |
| 20260831213110 | 75 | 157 | 0.0 | 0.0 | 0.21 | 0.04 | 0.05 | 87 | 1013.6 |
| 20260831212520 | 75 | 157 | 0.0 | 0.0 | 0.00 | 0.03 | 0.03 | 87 | 1013.6 |
| 20260831212416 | 75 | 157 | 0.0 | 0.0 | 0.00 | 0.03 | 0.03 | 86 | 1013.5 |
| 20260831212312 | 75 | 157 | 0.0 | 0.0 | 0.00 | 0.03 | 0.03 | 86 | 1013.5 |
| 20260831212207 | 76 | 157 | 0.0 | 0.0 | 0.00 | 0.03 | 0.03 | 86 | 1013.5 |
| 20260831212101 | 76 | 157 | 0.0 | 0.0 | 0.00 | 0.03 | 0.03 | 86 | 1013.5 |
| 20260831211955 | 76 | 157 | 0.0 | 0.0 | 0.00 | 0.03 | 0.03 | 86 | 1013.5 |
| 20260831211852 | 76 | 157 | 0.0 | 0.0 | 0.00 | 0.02 | 0.03 | 86 | 1013.6 |
| 20260831211749 | 76 | 157 | 0.0 | 0.0 | 0.00 | 0.02 | 0.02 | 87 | 1013.5 |
| 20260831211646 | 76 | 157 | 0.0 | 0.0 | 0.00 | 0.02 | 0.02 | 87 | 1013.4 |
| 20260831211320 | 76 | 182 | 0.0 | 0.0 | 0.00 | 0.02 | 0.02 | 87 | 1013.4 |
| 20260831211216 | 76 | 180 | 0.0 | 0.0 | 0.00 | 0.02 | 0.02 | 87 | 1013.4 |
| 20260831210854 | 76 | 178 | 0.0 | 0.0 | 0.00 | 0.02 | 0.02 | 87 | 1013.3 |
| 20260831210750 | 76 | 179 | 0.0 | 0.0 | 0.00 | 0.02 | 0.02 | 86 | 1013.3 |
| 20260831210422 | 76 | 281 | 0.0 | 0.0 | 0.04 | 0.02 | 0.02 | 86 | 1013.4 |
| 20260831210316 | 77 | 287 | 0.0 | 0.0 | 0.05 | 0.02 | 0.02 | 86 | 1013.4 |
| 20260831210211 | 77 | 287 | 0.0 | 0.0 | 0.05 | 0.02 | 0.02 | 85 | 1013.5 |
| 20260831205845 | 77 | 340 | 0.0 | 0.0 | 0.06 | 0.04 | 0.02 | 85 | 1013.3 |
| 20260831205738 | 77 | 340 | 0.0 | 0.0 | 0.08 | 0.05 | 0.02 | 84 | 1013.3 |
| 20260831205635 | 77 | 340 | 0.0 | 0.0 | 0.09 | 0.05 | 0.02 | 84 | 1013.3 |
| 20260831205529 | 78 | 340 | 0.0 | 0.0 | 0.09 | 0.05 | 0.02 | 84 | 1013.3 |
| 20260831205424 | 78 | 340 | 0.0 | 0.0 | 0.09 | 0.05 | 0.02 | 83 | 1013.3 |
| 20260831205322 | 78 | 339 | 0.0 | 0.0 | 0.09 | 0.05 | 0.02 | 83 | 1013.3 |
| 20260831205217 | 78 | 339 | 0.0 | 0.0 | 0.09 | 0.05 | 0.02 | 82 | 1013.4 |
| 20260831205109 | 78 | 339 | 0.0 | 0.0 | 0.09 | 0.05 | 0.02 | 82 | 1013.4 |
| 20260831204742 | 79 | 355 | 0.0 | 0.0 | 0.00 | 0.04 | 0.01 | 80 | 1013.7 |
| 20260831204415 | 80 | 355 | 0.0 | 0.0 | 0.00 | 0.04 | 0.01 | 79 | 1013.8 |
| 20260831204313 | 80 | 355 | 0.0 | 0.0 | 0.00 | 0.03 | 0.00 | 78 | 1013.7 |
| 20260831203947 | 80 | 355 | 0.0 | 0.0 | 0.00 | 0.03 | 0.00 | 76 | 1013.8 |
| 20260831203842 | 80 | 355 | 0.0 | 0.0 | 0.00 | 0.03 | 0.00 | 76 | 1013.7 |
| 20260831203737 | 80 | 355 | 0.0 | 0.0 | 0.00 | 0.03 | 0.00 | 76 | 1013.8 |
| 20260831203411 | 81 | 355 | 0.0 | 0.0 | 0.00 | 0.03 | 0.00 | 74 | 1013.7 |
| 20260831203304 | 81 | 355 | 0.0 | 0.0 | 0.00 | 0.03 | 0.00 | 73 | 1013.7 |
| 20260831203157 | 81 | 355 | 0.0 | 0.0 | 0.00 | 0.03 | 0.00 | 73 | 1013.7 |
| 20260831202833 | 82 | 192 | 0.0 | 0.0 | 0.00 | 0.03 | 0.00 | 72 | 1013.6 |
| 20260831202727 | 82 | 192 | 0.0 | 0.0 | 0.00 | 0.03 | 0.00 | 72 | 1013.6 |
| 20260831202623 | 82 | 192 | 0.0 | 0.0 | 0.00 | 0.03 | 0.00 | 71 | 1013.5 |
| 20260831202518 | 82 | 192 | 0.0 | 0.0 | 0.00 | 0.03 | 0.00 | 71 | 1013.4 |
| 20260831202415 | 82 | 192 | 0.0 | 0.0 | 0.00 | 0.03 | 0.00 | 72 | 1013.3 |
| 20260831202312 | 82 | 192 | 0.0 | 0.0 | 0.00 | 0.03 | 0.00 | 71 | 1013.2 |
| 20260831202208 | 82 | 192 | 0.0 | 0.0 | 0.00 | 0.03 | 0.00 | 70 | 1013.1 |
| 20260831202102 | 82 | 192 | 0.0 | 0.0 | 0.00 | 0.03 | 0.00 | 71 | 1013.0 |
| 20260831201956 | 82 | 192 | 0.0 | 0.0 | 0.00 | 0.03 | 0.00 | 71 | 1012.9 |
| 20260831201848 | 83 | 192 | 0.0 | 0.0 | 0.00 | 0.03 | 0.00 | 71 | 1012.8 |
| 20260831201746 | 83 | 192 | 0.0 | 0.0 | 0.00 | 0.03 | 0.00 | 71 | 1012.7 |
| 20260831201420 | 83 | 192 | 0.0 | 0.0 | 0.00 | 0.03 | 0.00 | 69 | 1012.5 |
| 20260831201316 | 83 | 194 | 0.0 | 0.0 | 0.00 | 0.03 | 0.00 | 69 | 1012.5 |
| 20260831201210 | 83 | 194 | 0.0 | 0.0 | 0.00 | 0.03 | 0.00 | 68 | 1012.5 |
| 20260831201107 | 83 | 194 | 0.0 | 0.0 | 0.00 | 0.03 | 0.00 | 69 | 1012.5 |
| 20260831201000 | 83 | 171 | 0.0 | 0.0 | 0.00 | 0.03 | 0.00 | 69 | 1012.5 |
| 20260831200854 | 83 | 171 | 0.0 | 0.0 | 0.00 | 0.03 | 0.00 | 68 | 1012.5 |
| 20260831200747 | 83 | 171 | 0.0 | 0.0 | 0.00 | 0.03 | 0.00 | 67 | 1012.4 |
| 20260831200640 | 83 | 180 | 0.0 | 0.0 | 0.00 | 0.03 | 0.00 | 68 | 1012.4 |
| 20260831200537 | 83 | 222 | 0.0 | 0.0 | 0.00 | 0.03 | 0.00 | 69 | 1012.4 |
| 20260831200432 | 83 | 223 | 0.0 | 3.0 | 0.00 | 0.03 | 0.00 | 68 | 1012.4 |
| 20260831200328 | 83 | 221 | 0.0 | 3.0 | 0.00 | 0.03 | 0.00 | 68 | 1012.4 |
| 20260831200225 | 83 | 189 | 0.0 | 0.0 | 0.00 | 0.03 | 0.00 | 68 | 1012.4 |
| 20260831200122 | 83 | 210 | 0.0 | 3.0 | 0.00 | 0.03 | 0.00 | 68 | 1012.3 |
| 20260831200020 | 83 | 159 | 0.0 | 3.0 | 0.00 | 0.03 | 0.00 | 69 | 1012.4 |
| 20260831195913 | 83 | 203 | 0.0 | 0.0 | 0.00 | 0.03 | 0.00 | 69 | 1012.3 |
| 20260831195810 | 83 | 202 | 0.0 | 3.0 | 0.00 | 0.03 | 0.00 | 68 | 1012.4 |
| 20260831195449 | 84 | 167 | 0.0 | 0.0 | 0.00 | 0.03 | 0.00 | 68 | 1012.4 |
| 20260831195343 | 84 | 210 | 0.0 | 6.0 | 0.00 | 0.03 | 0.00 | 68 | 1012.4 |
| 20260831195021 | 84 | 180 | 0.0 | 6.0 | 0.00 | 0.03 | 0.00 | 67 | 1012.5 |
| 20260831194917 | 84 | 175 | 0.0 | 2.0 | 0.00 | 0.03 | 0.00 | 69 | 1012.4 |
| 20260831194813 | 84 | 157 | 0.0 | 1.0 | 0.00 | 0.03 | 0.00 | 69 | 1012.4 |
| 20260831194711 | 84 | 176 | 0.0 | 0.0 | 0.00 | 0.03 | 0.00 | 70 | 1012.4 |
| 20260831194606 | 84 | 175 | 0.0 | 0.0 | 0.00 | 0.03 | 0.00 | 69 | 1012.4 |
| 20260831194458 | 84 | 175 | 0.0 | 6.0 | 0.00 | 0.03 | 0.00 | 69 | 1012.4 |
| 20260831194351 | 84 | 175 | 0.0 | 6.0 | 0.00 | 0.03 | 0.00 | 68 | 1012.4 |
| 20260831194247 | 84 | 202 | 0.0 | 6.0 | 0.00 | 0.03 | 0.00 | 68 | 1012.4 |
| 20260831194145 | 84 | 205 | 0.0 | 6.0 | 0.00 | 0.03 | 0.00 | 68 | 1012.5 |
| 20260831193816 | 84 | 223 | 0.0 | 6.0 | 0.00 | 0.03 | 0.00 | 67 | 1012.5 |
| 20260831193454 | 84 | 242 | 0.0 | 5.0 | 0.00 | 0.03 | 0.00 | 67 | 1012.5 |
| 20260831193348 | 84 | 253 | 0.0 | 5.0 | 0.00 | 0.03 | 0.00 | 67 | 1012.6 |
| 20260831192806 | 84 | 194 | 0.0 | 6.0 | 0.00 | 0.03 | 0.00 | 65 | 1012.7 |
| 20260831192704 | 84 | 202 | 0.0 | 6.0 | 0.00 | 0.03 | 0.00 | 66 | 1012.7 |
| 20260831192340 | 84 | 224 | 0.0 | 0.0 | 0.00 | 0.03 | 0.00 | 68 | 1012.7 |
| 20260831192235 | 84 | 179 | 0.0 | 0.0 | 0.00 | 0.03 | 0.00 | 69 | 1012.7 |
| 20260831192132 | 84 | 179 | 0.0 | 0.0 | 0.00 | 0.03 | 0.00 | 69 | 1012.7 |
| 20260831192031 | 84 | 180 | 0.0 | 0.0 | 0.00 | 0.03 | 0.00 | 68 | 1012.6 |
| 20260831191928 | 84 | 181 | 0.0 | 7.0 | 0.00 | 0.03 | 0.00 | 65 | 1012.6 |
| 20260831191820 | 84 | 222 | 0.0 | 7.0 | 0.00 | 0.03 | 0.00 | 66 | 1012.6 |
| 20260831191715 | 84 | 167 | 0.0 | 4.0 | 0.00 | 0.03 | 0.00 | 66 | 1012.7 |
| 20260831191610 | 84 | 176 | 0.0 | 2.0 | 0.00 | 0.03 | 0.00 | 65 | 1012.7 |
| 20260831191505 | 84 | 202 | 0.0 | 2.0 | 0.00 | 0.03 | 0.00 | 66 | 1012.7 |
| 20260831191402 | 84 | 175 | 0.0 | 2.0 | 0.00 | 0.03 | 0.00 | 67 | 1012.7 |
| 20260831191300 | 84 | 229 | 0.0 | 6.0 | 0.00 | 0.03 | 0.00 | 65 | 1012.8 |
| 20260831191153 | 85 | 254 | 1.0 | 6.0 | 0.00 | 0.03 | 0.00 | 64 | 1012.7 |
| 20260831191049 | 85 | 271 | 0.0 | 6.0 | 0.00 | 0.03 | 0.00 | 64 | 1012.7 |
| 20260831190942 | 85 | 216 | 0.0 | 6.0 | 0.00 | 0.03 | 0.00 | 65 | 1012.8 |
| 20260831190837 | 85 | 217 | 1.0 | 6.0 | 0.00 | 0.03 | 0.00 | 65 | 1012.8 |
| 20260831190512 | 85 | 227 | 1.0 | 6.0 | 0.00 | 0.03 | 0.00 | 64 | 1012.8 |
| 20260831190410 | 85 | 188 | 1.0 | 6.0 | 0.00 | 0.03 | 0.00 | 64 | 1012.7 |
| 20260831190306 | 85 | 161 | 1.0 | 5.0 | 0.00 | 0.03 | 0.00 | 66 | 1012.7 |
| 20260831190201 | 85 | 240 | 1.0 | 5.0 | 0.00 | 0.03 | 0.00 | 67 | 1012.7 |
| 20260831190058 | 85 | 178 | 1.0 | 6.0 | 0.00 | 0.03 | 0.00 | 67 | 1012.7 |
| 20260831185954 | 85 | 218 | 1.0 | 6.0 | 0.00 | 0.03 | 0.00 | 66 | 1012.7 |
| 20260831185850 | 85 | 225 | 1.0 | 6.0 | 0.00 | 0.03 | 0.00 | 65 | 1012.7 |
| 20260831185747 | 85 | 222 | 1.0 | 6.0 | 0.00 | 0.03 | 0.00 | 67 | 1012.7 |
| 20260831185644 | 85 | 172 | 1.0 | 6.0 | 0.00 | 0.03 | 0.00 | 67 | 1012.7 |
| 20260831185538 | 85 | 223 | 1.0 | 6.0 | 0.00 | 0.03 | 0.00 | 67 | 1012.7 |
| 20260831185433 | 85 | 215 | 1.0 | 6.0 | 0.00 | 0.03 | 0.00 | 66 | 1012.7 |
| 20260831185329 | 85 | 180 | 1.0 | 6.0 | 0.00 | 0.03 | 0.00 | 68 | 1012.7 |
| 20260831185224 | 85 | 259 | 1.0 | 6.0 | 0.00 | 0.03 | 0.00 | 68 | 1012.7 |
| 20260831185122 | 84 | 223 | 1.0 | 6.0 | 0.00 | 0.03 | 0.00 | 67 | 1012.8 |
| 20260831185018 | 84 | 217 | 1.0 | 7.0 | 0.00 | 0.03 | 0.00 | 67 | 1012.8 |
| 20260831184914 | 84 | 202 | 1.0 | 7.0 | 0.00 | 0.03 | 0.00 | 68 | 1012.9 |
| 20260831184807 | 84 | 182 | 1.0 | 7.0 | 0.00 | 0.03 | 0.00 | 68 | 1012.9 |
| 20260831184702 | 84 | 182 | 1.0 | 7.0 | 0.00 | 0.03 | 0.00 | 68 | 1012.9 |
| 20260831184554 | 84 | 263 | 1.0 | 7.0 | 0.00 | 0.03 | 0.00 | 67 | 1012.9 |
| 20260831184451 | 84 | 252 | 0.0 | 7.0 | 0.00 | 0.03 | 0.00 | 68 | 1012.9 |
| 20260831184347 | 84 | 170 | 0.0 | 7.0 | 0.00 | 0.03 | 0.00 | 68 | 1013.0 |
| 20260831184024 | 83 | 214 | 0.0 | 6.0 | 0.00 | 0.03 | 0.00 | 69 | 1013.0 |
| 20260831183920 | 83 | 186 | 0.0 | 6.0 | 0.00 | 0.03 | 0.00 | 70 | 1013.0 |
| 20260831183815 | 83 | 238 | 0.0 | 6.0 | 0.00 | 0.03 | 0.00 | 70 | 1013.0 |
| 20260831183710 | 83 | 247 | 0.0 | 6.0 | 0.00 | 0.03 | 0.00 | 69 | 1013.1 |
| 20260831183603 | 83 | 213 | 0.0 | 6.0 | 0.00 | 0.03 | 0.00 | 69 | 1013.1 |
| 20260831183458 | 83 | 230 | 0.0 | 6.0 | 0.00 | 0.03 | 0.00 | 70 | 1013.2 |
| 20260831183354 | 83 | 237 | 0.0 | 6.0 | 0.00 | 0.03 | 0.00 | 71 | 1013.2 |
| 20260831183252 | 83 | 258 | 0.0 | 6.0 | 0.00 | 0.03 | 0.00 | 70 | 1013.2 |
| 20260831183145 | 82 | 195 | 0.0 | 6.0 | 0.00 | 0.03 | 0.00 | 69 | 1013.3 |
| 20260831182821 | 82 | 214 | 0.0 | 5.0 | 0.00 | 0.03 | 0.00 | 70 | 1013.3 |
| 20260831182713 | 82 | 216 | 0.0 | 5.0 | 0.00 | 0.03 | 0.00 | 71 | 1013.3 |
| 20260831182608 | 82 | 186 | 0.0 | 5.0 | 0.00 | 0.03 | 0.00 | 72 | 1013.3 |
| 20260831182505 | 82 | 172 | 0.0 | 5.0 | 0.00 | 0.03 | 0.00 | 71 | 1013.2 |
| 20260831182400 | 82 | 188 | 0.0 | 5.0 | 0.00 | 0.03 | 0.00 | 71 | 1013.2 |
| 20260831182257 | 82 | 202 | 0.0 | 5.0 | 0.00 | 0.03 | 0.00 | 71 | 1013.2 |
| 20260831182149 | 82 | 203 | 0.0 | 2.0 | 0.00 | 0.03 | 0.00 | 72 | 1013.1 |
| 20260831182046 | 82 | 163 | 0.0 | 0.0 | 0.00 | 0.03 | 0.00 | 71 | 1013.1 |
| 20260831181940 | 82 | 244 | 0.0 | 2.0 | 0.00 | 0.03 | 0.00 | 71 | 1013.1 |
| 20260831181836 | 82 | 245 | 0.0 | 2.0 | 0.00 | 0.03 | 0.00 | 71 | 1013.1 |
| 20260831181512 | 82 | 252 | 0.0 | 7.0 | 0.00 | 0.03 | 0.00 | 71 | 1013.2 |
| 20260831181146 | 82 | 186 | 0.0 | 0.0 | 0.00 | 0.03 | 0.00 | 71 | 1013.2 |
| 20260831181042 | 82 | 208 | 0.0 | 0.0 | 0.00 | 0.03 | 0.00 | 72 | 1013.2 |
| 20260831180935 | 82 | 208 | 0.0 | 0.0 | 0.00 | 0.03 | 0.00 | 70 | 1013.2 |
| 20260831180827 | 82 | 211 | 0.0 | 0.0 | 0.00 | 0.03 | 0.00 | 72 | 1013.2 |
| 20260831180722 | 81 | 222 | 0.0 | 0.0 | 0.00 | 0.03 | 0.00 | 71 | 1013.2 |
| 20260831180616 | 81 | 219 | 0.0 | 1.0 | 0.00 | 0.03 | 0.00 | 71 | 1013.1 |
| 20260831180251 | 81 | 178 | 0.0 | 0.0 | 0.00 | 0.03 | 0.00 | 73 | 1013.1 |
| 20260831175928 | 81 | 182 | 0.0 | 0.0 | 0.00 | 0.03 | 0.00 | 72 | 1013.2 |
| 20260831175559 | 81 | 186 | 0.0 | 3.0 | 0.00 | 0.03 | 0.00 | 70 | 1013.2 |
| 20260831175456 | 81 | 188 | 0.0 | 2.0 | 0.00 | 0.03 | 0.00 | 72 | 1013.2 |
| 20260831175349 | 81 | 161 | 0.0 | 0.0 | 0.00 | 0.03 | 0.00 | 72 | 1013.2 |
| 20260831175026 | 81 | 160 | 0.0 | 2.0 | 0.00 | 0.03 | 0.00 | 70 | 1013.2 |
| 20260831174920 | 81 | 146 | 0.0 | 2.0 | 0.00 | 0.03 | 0.00 | 70 | 1013.2 |
| 20260831174818 | 81 | 143 | 0.0 | 1.0 | 0.00 | 0.03 | 0.00 | 69 | 1013.2 |
| 20260831174714 | 81 | 186 | 0.0 | 0.0 | 0.00 | 0.03 | 0.00 | 70 | 1013.2 |
| 20260831174608 | 81 | 186 | 0.0 | 0.0 | 0.00 | 0.03 | 0.00 | 70 | 1013.2 |
| 20260831174504 | 81 | 186 | 0.0 | 0.0 | 0.00 | 0.03 | 0.00 | 70 | 1013.3 |
| 20260831174402 | 81 | 188 | 0.0 | 0.0 | 0.00 | 0.03 | 0.00 | 70 | 1013.3 |
| 20260831174041 | 81 | 281 | 0.0 | 0.0 | 0.00 | 0.03 | 0.00 | 71 | 1013.4 |
| 20260831173718 | 81 | 281 | 0.0 | 0.0 | 0.00 | 0.03 | 0.00 | 70 | 1013.3 |
| 20260831173616 | 81 | 182 | 0.0 | 0.0 | 0.00 | 0.03 | 0.00 | 72 | 1013.3 |
| 20260831173250 | 81 | 182 | 0.0 | 0.0 | 0.00 | 0.03 | 0.00 | 71 | 1013.2 |
| 20260831173147 | 81 | 182 | 0.0 | 0.0 | 0.00 | 0.03 | 0.00 | 70 | 1013.2 |
| 20260831173043 | 81 | 182 | 0.0 | 0.0 | 0.00 | 0.03 | 0.00 | 71 | 1013.2 |
| 20260831172939 | 81 | 181 | 0.0 | 0.0 | 0.00 | 0.03 | 0.00 | 72 | 1013.2 |
| 20260831172614 | 81 | 182 | 0.0 | 0.0 | 0.00 | 0.03 | 0.00 | 70 | 1013.2 |
| 20260831172507 | 82 | 182 | 0.0 | 0.0 | 0.00 | 0.03 | 0.00 | 70 | 1013.2 |
| 20260831172359 | 82 | 182 | 0.0 | 2.0 | 0.00 | 0.03 | 0.00 | 70 | 1013.2 |
| 20260831172252 | 82 | 182 | 0.0 | 2.0 | 0.00 | 0.03 | 0.00 | 69 | 1013.2 |
| 20260831172146 | 82 | 186 | 0.0 | 0.0 | 0.00 | 0.03 | 0.00 | 70 | 1013.2 |
| 20260831172039 | 82 | 187 | 0.0 | 0.0 | 0.00 | 0.03 | 0.00 | 69 | 1013.2 |
| 20260831171935 | 82 | 177 | 0.0 | 0.0 | 0.00 | 0.03 | 0.00 | 69 | 1013.2 |
| 20260831171832 | 82 | 217 | 0.0 | 0.0 | 0.00 | 0.03 | 0.00 | 67 | 1013.2 |
| 20260831171726 | 82 | 218 | 0.0 | 0.0 | 0.00 | 0.03 | 0.00 | 67 | 1013.3 |
| 20260831171622 | 82 | 218 | 0.0 | 0.0 | 0.00 | 0.03 | 0.00 | 67 | 1013.4 |
| 20260831171518 | 82 | 195 | 0.0 | 0.0 | 0.00 | 0.03 | 0.00 | 67 | 1013.5 |
| 20260831171416 | 82 | 189 | 0.0 | 5.0 | 0.00 | 0.03 | 0.00 | 67 | 1013.6 |
| 20260831171310 | 82 | 198 | 0.0 | 5.0 | 0.00 | 0.03 | 0.00 | 67 | 1013.6 |
| 20260831171207 | 82 | 192 | 0.0 | 5.0 | 0.00 | 0.03 | 0.00 | 67 | 1013.6 |
| 20260831170844 | 83 | 237 | 0.0 | 0.0 | 0.00 | 0.03 | 0.00 | 68 | 1013.5 |
| 20260831170739 | 83 | 238 | 0.0 | 0.0 | 0.00 | 0.03 | 0.00 | 67 | 1013.5 |
| 20260831170635 | 83 | 238 | 0.0 | 0.0 | 0.00 | 0.03 | 0.00 | 68 | 1013.5 |
| 20260831170531 | 83 | 238 | 0.0 | 0.0 | 0.00 | 0.03 | 0.00 | 68 | 1013.5 |
| 20260831170426 | 83 | 237 | 0.0 | 8.0 | 0.00 | 0.03 | 0.00 | 66 | 1013.6 |
| 20260831170054 | 83 | 240 | 1.0 | 8.0 | 0.00 | 0.03 | 0.00 | 66 | 1013.7 |
| 20260831165950 | 83 | 217 | 1.0 | 8.0 | 0.00 | 0.03 | 0.00 | 65 | 1013.7 |
| 20260831165847 | 83 | 233 | 1.0 | 8.0 | 0.00 | 0.03 | 0.00 | 65 | 1013.7 |
| 20260831165741 | 83 | 252 | 1.0 | 8.0 | 0.00 | 0.03 | 0.00 | 66 | 1013.7 |
| 20260831165418 | 83 | 210 | 1.0 | 8.0 | 0.00 | 0.03 | 0.00 | 64 | 1013.9 |
| 20260831165058 | 82 | 258 | 0.0 | 5.0 | 0.00 | 0.03 | 0.00 | 68 | 1014.1 |
| 20260831164953 | 82 | 293 | 0.0 | 4.0 | 0.00 | 0.03 | 0.00 | 69 | 1014.2 |
| 20260831164847 | 82 | 266 | 0.0 | 3.0 | 0.00 | 0.03 | 0.00 | 71 | 1014.2 |
| 20260831164520 | 82 | 245 | 0.0 | 0.0 | 0.00 | 0.03 | 0.00 | 69 | 1014.4 |
| 20260831164416 | 82 | 245 | 0.0 | 0.0 | 0.00 | 0.03 | 0.00 | 70 | 1014.4 |
| 20260831164309 | 82 | 245 | 0.0 | 5.0 | 0.00 | 0.03 | 0.00 | 70 | 1014.4 |
| 20260831164202 | 82 | 276 | 0.0 | 5.0 | 0.00 | 0.03 | 0.00 | 72 | 1014.5 |
| 20260831164058 | 82 | 245 | 0.0 | 5.0 | 0.00 | 0.03 | 0.00 | 69 | 1014.5 |
| 20260831163956 | 82 | 245 | 0.0 | 5.0 | 0.00 | 0.03 | 0.00 | 71 | 1014.5 |
| 20260831163850 | 82 | 290 | 0.0 | 2.0 | 0.00 | 0.03 | 0.00 | 72 | 1014.5 |
| 20260831163746 | 82 | 266 | 0.0 | 2.0 | 0.00 | 0.03 | 0.00 | 70 | 1014.5 |
| 20260831163639 | 82 | 267 | 0.0 | 2.0 | 0.00 | 0.03 | 0.00 | 72 | 1014.5 |
| 20260831163058 | 82 | 303 | 0.0 | 2.0 | 0.00 | 0.03 | 0.00 | 74 | 1014.4 |
| 20260831162954 | 81 | 304 | 0.0 | 2.0 | 0.00 | 0.04 | 0.00 | 73 | 1014.4 |
| 20260831162851 | 81 | 267 | 0.0 | 0.0 | 0.00 | 0.04 | 0.00 | 74 | 1014.5 |
| 20260831162746 | 81 | 249 | 0.0 | 0.0 | 0.00 | 0.04 | 0.00 | 75 | 1014.5 |
| 20260831162642 | 81 | 249 | 0.0 | 0.0 | 0.00 | 0.04 | 0.00 | 75 | 1014.5 |
| 20260831162535 | 81 | 249 | 0.0 | 0.0 | 0.00 | 0.04 | 0.00 | 76 | 1014.5 |
| 20260831161954 | 80 | 296 | 0.0 | 4.0 | 0.00 | 0.04 | 0.00 | 74 | 1014.5 |
| 20260831161852 | 80 | 248 | 0.0 | 0.0 | 0.00 | 0.04 | 0.00 | 75 | 1014.6 |
| 20260831161749 | 80 | 247 | 0.0 | 4.0 | 0.00 | 0.04 | 0.00 | 75 | 1014.6 |
| 20260831161648 | 80 | 250 | 0.0 | 4.0 | 0.00 | 0.04 | 0.00 | 75 | 1014.6 |
| 20260831161323 | 79 | 298 | 0.0 | 2.0 | 0.00 | 0.04 | 0.00 | 76 | 1014.6 |
| 20260831161218 | 79 | 298 | 0.0 | 2.0 | 0.00 | 0.04 | 0.00 | 75 | 1014.7 |
| 20260831161111 | 79 | 302 | 0.0 | 1.0 | 0.00 | 0.04 | 0.00 | 77 | 1014.7 |
| 20260831161007 | 79 | 279 | 0.0 | 0.0 | 0.00 | 0.04 | 0.00 | 77 | 1014.7 |
| 20260831160859 | 79 | 278 | 0.0 | 0.0 | 0.00 | 0.04 | 0.00 | 77 | 1014.7 |
| 20260831160752 | 79 | 278 | 0.0 | 0.0 | 0.00 | 0.04 | 0.00 | 77 | 1014.7 |
| 20260831160649 | 79 | 278 | 0.0 | 0.0 | 0.00 | 0.04 | 0.00 | 77 | 1014.7 |
| 20260831160541 | 79 | 278 | 0.0 | 0.0 | 0.00 | 0.04 | 0.00 | 77 | 1014.7 |
| 20260831160214 | 79 | 278 | 0.0 | 0.0 | 0.00 | 0.04 | 0.00 | 77 | 1014.6 |
| 20260831160107 | 79 | 278 | 0.0 | 0.0 | 0.00 | 0.04 | 0.00 | 76 | 1014.6 |
| 20260831160004 | 79 | 223 | 0.0 | 0.0 | 0.00 | 0.04 | 0.00 | 76 | 1014.5 |
| 20260831155858 | 79 | 213 | 0.0 | 0.0 | 0.00 | 0.05 | 0.00 | 76 | 1014.6 |
| 20260831155753 | 79 | 213 | 0.0 | 0.0 | 0.00 | 0.05 | 0.00 | 75 | 1014.5 |
| 20260831155649 | 79 | 214 | 0.0 | 0.0 | 0.00 | 0.05 | 0.00 | 76 | 1014.5 |
| 20260831155545 | 79 | 206 | 0.0 | 0.0 | 0.00 | 0.05 | 0.00 | 76 | 1014.5 |
| 20260831155440 | 79 | 194 | 0.0 | 0.0 | 0.00 | 0.05 | 0.00 | 77 | 1014.4 |
| 20260831155335 | 79 | 192 | 0.0 | 0.0 | 0.00 | 0.05 | 0.00 | 79 | 1014.4 |
| 20260831155228 | 79 | 192 | 0.0 | 0.0 | 0.00 | 0.05 | 0.00 | 78 | 1014.4 |
| 20260831155124 | 78 | 193 | 0.0 | 0.0 | 0.00 | 0.05 | 0.00 | 78 | 1014.4 |
| 20260831155018 | 78 | 286 | 0.0 | 0.0 | 0.00 | 0.05 | 0.00 | 78 | 1014.4 |
| 20260831154911 | 78 | 286 | 0.0 | 0.0 | 0.00 | 0.05 | 0.00 | 78 | 1014.4 |
| 20260831154805 | 78 | 286 | 0.0 | 0.0 | 0.00 | 0.05 | 0.00 | 79 | 1014.5 |
| 20260831154659 | 78 | 286 | 0.0 | 0.0 | 0.00 | 0.05 | 0.00 | 79 | 1014.5 |
| 20260831154115 | 78 | 286 | 0.0 | 0.0 | 0.00 | 0.05 | 0.00 | 79 | 1014.5 |
| 20260831154009 | 78 | 286 | 0.0 | 0.0 | 0.00 | 0.05 | 0.00 | 79 | 1014.5 |
| 20260831153903 | 78 | 286 | 0.0 | 0.0 | 0.00 | 0.05 | 0.00 | 80 | 1014.4 |
| 20260831153758 | 78 | 286 | 0.0 | 0.0 | 0.00 | 0.06 | 0.00 | 80 | 1014.4 |
| 20260831153652 | 78 | 286 | 0.0 | 0.0 | 0.00 | 0.06 | 0.00 | 80 | 1014.4 |
| 20260831153549 | 78 | 286 | 0.0 | 0.0 | 0.00 | 0.06 | 0.00 | 79 | 1014.4 |
| 20260831153447 | 78 | 286 | 0.0 | 0.0 | 0.00 | 0.06 | 0.00 | 80 | 1014.4 |
| 20260831153340 | 78 | 288 | 0.0 | 0.0 | 0.00 | 0.06 | 0.00 | 80 | 1014.4 |
| 20260831153238 | 78 | 288 | 0.0 | 0.0 | 0.00 | 0.06 | 0.00 | 80 | 1014.5 |
| 20260831153130 | 78 | 288 | 0.0 | 0.0 | 0.00 | 0.07 | 0.00 | 80 | 1014.5 |
| 20260831153024 | 77 | 288 | 0.0 | 0.0 | 0.00 | 0.07 | 0.00 | 79 | 1014.5 |
| 20260831152921 | 78 | 288 | 0.0 | 0.0 | 0.00 | 0.07 | 0.00 | 79 | 1014.5 |
| 20260831152556 | 77 | 255 | 0.0 | 0.0 | 0.00 | 0.07 | 0.00 | 78 | 1014.5 |
| 20260831152235 | 77 | 255 | 0.0 | 0.0 | 0.00 | 0.08 | 0.00 | 79 | 1014.5 |
| 20260831152133 | 77 | 255 | 0.0 | 0.0 | 0.00 | 0.09 | 0.00 | 79 | 1014.5 |
| 20260831152029 | 77 | 255 | 0.0 | 0.0 | 0.00 | 0.09 | 0.00 | 79 | 1014.4 |
| 20260831151927 | 77 | 255 | 0.0 | 0.0 | 0.00 | 0.09 | 0.00 | 79 | 1014.4 |
| 20260831151824 | 77 | 255 | 0.0 | 0.0 | 0.00 | 0.09 | 0.00 | 80 | 1014.4 |
| 20260831151717 | 77 | 256 | 0.0 | 0.0 | 0.00 | 0.10 | 0.00 | 80 | 1014.4 |
| 20260831151614 | 77 | 256 | 0.0 | 0.0 | 0.00 | 0.10 | 0.00 | 80 | 1014.4 |
| 20260831151250 | 77 | 256 | 0.0 | 0.0 | 0.00 | 0.10 | 0.00 | 80 | 1014.4 |
| 20260831151144 | 77 | 259 | 0.0 | 0.0 | 0.00 | 0.10 | 0.00 | 79 | 1014.4 |
| 20260831151042 | 77 | 259 | 0.0 | 0.0 | 0.00 | 0.10 | 0.00 | 79 | 1014.4 |
| 20260831150938 | 77 | 259 | 0.0 | 0.0 | 0.00 | 0.10 | 0.00 | 79 | 1014.5 |
| 20260831150834 | 77 | 259 | 0.0 | 0.0 | 0.00 | 0.10 | 0.00 | 79 | 1014.5 |
| 20260831150729 | 77 | 259 | 0.0 | 0.0 | 0.00 | 0.11 | 0.00 | 79 | 1014.6 |
| 20260831150405 | 77 | 258 | 0.0 | 0.0 | 0.00 | 0.11 | 0.00 | 79 | 1014.5 |
| 20260831150039 | 77 | 258 | 0.0 | 0.0 | 0.00 | 0.11 | 0.00 | 79 | 1014.6 |
| 20260831145937 | 77 | 258 | 0.0 | 0.0 | 0.00 | 0.11 | 0.00 | 80 | 1014.6 |
| 20260831145833 | 77 | 262 | 0.0 | 0.0 | 0.00 | 0.11 | 0.00 | 80 | 1014.6 |
| 20260831145506 | 77 | 293 | 0.0 | 3.0 | 0.00 | 0.12 | 0.00 | 80 | 1014.7 |
| 20260831145403 | 77 | 294 | 0.0 | 3.0 | 0.00 | 0.12 | 0.00 | 81 | 1014.7 |
| 20260831145300 | 77 | 300 | 0.0 | 0.0 | 0.00 | 0.12 | 0.00 | 82 | 1014.7 |
| 20260831145158 | 76 | 268 | 0.0 | 0.0 | 0.00 | 0.12 | 0.00 | 82 | 1014.6 |
| 20260831145054 | 76 | 234 | 0.0 | 0.0 | 0.00 | 0.13 | 0.00 | 82 | 1014.6 |
| 20260831144952 | 76 | 234 | 0.0 | 0.0 | 0.00 | 0.13 | 0.00 | 82 | 1014.6 |
| 20260831144850 | 76 | 234 | 0.0 | 0.0 | 0.00 | 0.13 | 0.00 | 82 | 1014.6 |
| 20260831144745 | 76 | 234 | 0.0 | 0.0 | 0.00 | 0.13 | 0.00 | 81 | 1014.5 |
| 20260831144642 | 76 | 234 | 0.0 | 0.0 | 0.00 | 0.13 | 0.00 | 81 | 1014.5 |
| 20260831144540 | 76 | 234 | 0.0 | 0.0 | 0.00 | 0.13 | 0.00 | 81 | 1014.5 |
| 20260831144435 | 76 | 234 | 0.0 | 0.0 | 0.00 | 0.14 | 0.00 | 81 | 1014.5 |
| 20260831144328 | 76 | 234 | 0.0 | 0.0 | 0.00 | 0.14 | 0.00 | 81 | 1014.5 |
| 20260831144009 | 76 | 234 | 0.0 | 0.0 | 0.00 | 0.15 | 0.00 | 82 | 1014.5 |
| 20260831143905 | 76 | 234 | 0.0 | 0.0 | 0.00 | 0.15 | 0.00 | 84 | 1014.5 |
| 20260831143802 | 76 | 234 | 0.0 | 0.0 | 0.00 | 0.15 | 0.00 | 84 | 1014.4 |
| 20260831143658 | 76 | 234 | 0.0 | 0.0 | 0.00 | 0.15 | 0.00 | 84 | 1014.4 |
| 20260831143551 | 75 | 234 | 0.0 | 0.0 | 0.00 | 0.15 | 0.00 | 83 | 1014.4 |
| 20260831143225 | 75 | 234 | 0.0 | 0.0 | 0.00 | 0.16 | 0.00 | 84 | 1014.3 |
| 20260831143120 | 75 | 234 | 0.0 | 0.0 | 0.00 | 0.16 | 0.00 | 84 | 1014.3 |
| 20260831142538 | 75 | 234 | 0.0 | 4.0 | 0.00 | 0.16 | 0.00 | 85 | 1014.2 |
| 20260831142431 | 75 | 166 | 0.0 | 0.0 | 0.00 | 0.16 | 0.00 | 85 | 1014.2 |
| 20260831142324 | 75 | 166 | 0.0 | 0.0 | 0.00 | 0.17 | 0.00 | 85 | 1014.2 |
| 20260831142218 | 75 | 166 | 0.0 | 0.0 | 0.00 | 0.17 | 0.00 | 85 | 1014.2 |
| 20260831142115 | 75 | 166 | 0.0 | 0.0 | 0.00 | 0.17 | 0.00 | 85 | 1014.1 |
| 20260831142012 | 75 | 166 | 0.0 | 0.0 | 0.00 | 0.17 | 0.00 | 85 | 1014.1 |
| 20260831141909 | 75 | 166 | 0.0 | 0.0 | 0.00 | 0.17 | 0.00 | 85 | 1014.1 |
| 20260831141802 | 74 | 166 | 0.0 | 0.0 | 0.00 | 0.17 | 0.00 | 85 | 1014.1 |
| 20260831141433 | 74 | 190 | 0.0 | 0.0 | 0.00 | 0.17 | 0.00 | 85 | 1014.1 |
| 20260831141325 | 74 | 190 | 0.0 | 0.0 | 0.00 | 0.18 | 0.00 | 84 | 1014.1 |
| 20260831141221 | 74 | 190 | 0.0 | 0.0 | 0.00 | 0.18 | 0.00 | 85 | 1014.1 |
| 20260831141115 | 74 | 191 | 0.0 | 0.0 | 0.00 | 0.18 | 0.00 | 85 | 1014.1 |
| 20260831141007 | 74 | 191 | 0.0 | 0.0 | 0.00 | 0.18 | 0.00 | 85 | 1014.2 |
| 20260831140905 | 74 | 190 | 0.0 | 0.0 | 0.00 | 0.18 | 0.00 | 84 | 1014.2 |
| 20260831140800 | 74 | 190 | 0.0 | 0.0 | 0.00 | 0.19 | 0.00 | 84 | 1014.2 |
| 20260831140655 | 74 | 190 | 0.0 | 0.0 | 0.00 | 0.19 | 0.00 | 84 | 1014.2 |
| 20260831140551 | 74 | 190 | 0.0 | 0.0 | 0.00 | 0.19 | 0.00 | 84 | 1014.2 |
| 20260831140443 | 74 | 190 | 0.0 | 0.0 | 0.00 | 0.19 | 0.00 | 84 | 1014.2 |
| 20260831140116 | 74 | 191 | 0.0 | 0.0 | 0.00 | 0.20 | 0.00 | 84 | 1014.3 |
| 20260831140012 | 74 | 191 | 0.0 | 0.0 | 0.00 | 0.20 | 0.00 | 84 | 1014.3 |
| 20260831135910 | 74 | 191 | 0.0 | 0.0 | 0.00 | 0.20 | 0.00 | 84 | 1014.4 |
| 20260831135805 | 74 | 191 | 0.0 | 0.0 | 0.00 | 0.21 | 0.00 | 84 | 1014.4 |
| 20260831135700 | 74 | 191 | 0.0 | 0.0 | 0.00 | 0.21 | 0.00 | 84 | 1014.4 |
| 20260831135556 | 74 | 191 | 0.0 | 0.0 | 0.00 | 0.21 | 0.00 | 84 | 1014.4 |
| 20260831135453 | 74 | 191 | 0.0 | 0.0 | 0.00 | 0.21 | 0.00 | 84 | 1014.3 |
| 20260831135349 | 74 | 191 | 0.0 | 0.0 | 0.00 | 0.21 | 0.00 | 84 | 1014.3 |
| 20260831135242 | 74 | 191 | 0.0 | 0.0 | 0.00 | 0.21 | 0.00 | 84 | 1014.2 |
| 20260831135139 | 74 | 191 | 0.0 | 0.0 | 0.00 | 0.22 | 0.00 | 84 | 1014.2 |
| 20260831134816 | 74 | 190 | 0.0 | 0.0 | 0.00 | 0.23 | 0.00 | 84 | 1014.2 |
| 20260831134714 | 74 | 190 | 0.0 | 0.0 | 0.00 | 0.23 | 0.00 | 84 | 1014.2 |
| 20260831134607 | 74 | 190 | 0.0 | 0.0 | 0.00 | 0.23 | 0.00 | 84 | 1014.2 |
| 20260831134503 | 74 | 190 | 0.0 | 0.0 | 0.00 | 0.23 | 0.00 | 84 | 1014.2 |
| 20260831134356 | 74 | 190 | 0.0 | 0.0 | 0.00 | 0.23 | 0.00 | 84 | 1014.2 |
| 20260831134252 | 74 | 190 | 0.0 | 0.0 | 0.00 | 0.23 | 0.00 | 84 | 1014.2 |
| 20260831133925 | 74 | 191 | 0.0 | 0.0 | 0.00 | 0.24 | 0.00 | 84 | 1014.2 |
| 20260831133819 | 74 | 191 | 0.0 | 0.0 | 0.00 | 0.24 | 0.00 | 84 | 1014.2 |
| 20260831133715 | 74 | 191 | 0.0 | 0.0 | 0.00 | 0.25 | 0.00 | 84 | 1014.2 |
| 20260831133611 | 74 | 191 | 0.0 | 0.0 | 0.00 | 0.25 | 0.00 | 84 | 1014.2 |
| 20260831133245 | 74 | 191 | 0.0 | 0.0 | 0.00 | 0.25 | 0.00 | 84 | 1014.2 |
| 20260831133139 | 74 | 191 | 0.0 | 0.0 | 0.00 | 0.25 | 0.00 | 84 | 1014.2 |
| 20260831133037 | 74 | 191 | 0.0 | 0.0 | 0.00 | 0.25 | 0.00 | 84 | 1014.3 |
| 20260831132710 | 74 | 191 | 0.0 | 0.0 | 0.00 | 0.26 | 0.00 | 84 | 1014.2 |
| 20260831132603 | 74 | 191 | 0.0 | 0.0 | 0.00 | 0.26 | 0.00 | 84 | 1014.2 |
| 20260831132238 | 74 | 191 | 0.0 | 0.0 | 0.00 | 0.27 | 0.00 | 83 | 1014.1 |
| 20260831132136 | 74 | 191 | 0.0 | 0.0 | 0.00 | 0.27 | 0.00 | 84 | 1014.1 |
| 20260831132033 | 74 | 191 | 0.0 | 0.0 | 0.00 | 0.27 | 0.00 | 84 | 1014.1 |
| 20260831131930 | 74 | 191 | 0.0 | 0.0 | 0.00 | 0.27 | 0.00 | 84 | 1014.1 |
| 20260831131827 | 74 | 191 | 0.0 | 0.0 | 0.00 | 0.27 | 0.00 | 83 | 1014.1 |
| 20260831131719 | 74 | 191 | 0.0 | 0.0 | 0.00 | 0.27 | 0.00 | 83 | 1014.0 |
| 20260831131612 | 74 | 191 | 0.0 | 0.0 | 0.00 | 0.27 | 0.00 | 83 | 1014.0 |
| 20260831131509 | 74 | 191 | 0.0 | 0.0 | 0.00 | 0.27 | 0.00 | 83 | 1014.0 |
| 20260831131405 | 74 | 191 | 0.0 | 0.0 | 0.00 | 0.27 | 0.00 | 83 | 1013.9 |
| 20260831131046 | 74 | 191 | 0.0 | 0.0 | 0.00 | 0.27 | 0.00 | 83 | 1013.9 |
| 20260831130942 | 74 | 191 | 0.0 | 0.0 | 0.00 | 0.27 | 0.00 | 83 | 1013.9 |
| 20260831130836 | 74 | 191 | 0.0 | 0.0 | 0.00 | 0.28 | 0.00 | 82 | 1013.9 |
| 20260831130730 | 74 | 191 | 0.0 | 0.0 | 0.00 | 0.28 | 0.00 | 82 | 1013.9 |
| 20260831130627 | 74 | 191 | 0.0 | 0.0 | 0.00 | 0.28 | 0.00 | 83 | 1013.8 |
| 20260831130522 | 74 | 191 | 0.0 | 0.0 | 0.00 | 0.28 | 0.00 | 82 | 1013.9 |
| 20260831130415 | 74 | 225 | 0.0 | 0.0 | 0.00 | 0.29 | 0.00 | 82 | 1013.8 |
| 20260831130308 | 74 | 225 | 0.0 | 0.0 | 0.00 | 0.29 | 0.00 | 82 | 1013.8 |
| 20260831125941 | 74 | 219 | 0.0 | 0.0 | 0.00 | 0.29 | 0.00 | 82 | 1013.8 |
| 20260831125615 | 75 | 218 | 0.0 | 0.0 | 0.00 | 0.30 | 0.00 | 82 | 1013.7 |
| 20260831125509 | 74 | 218 | 0.0 | 0.0 | 0.00 | 0.30 | 0.00 | 82 | 1013.7 |
| 20260831125404 | 74 | 218 | 0.0 | 0.0 | 0.00 | 0.30 | 0.00 | 82 | 1013.6 |
| 20260831125037 | 74 | 218 | 0.0 | 0.0 | 0.00 | 0.30 | 0.00 | 82 | 1013.6 |
| 20260831124933 | 74 | 218 | 0.0 | 0.0 | 0.00 | 0.31 | 0.00 | 82 | 1013.6 |
| 20260831124610 | 74 | 220 | 0.0 | 0.0 | 0.00 | 0.31 | 0.00 | 82 | 1013.6 |
| 20260831124503 | 74 | 197 | 0.0 | 0.0 | 0.00 | 0.31 | 0.00 | 82 | 1013.7 |
| 20260831124355 | 74 | 197 | 0.0 | 0.0 | 0.00 | 0.31 | 0.00 | 82 | 1013.7 |
| 20260831124251 | 74 | 197 | 0.0 | 0.0 | 0.00 | 0.31 | 0.00 | 82 | 1013.7 |
| 20260831124145 | 74 | 197 | 0.0 | 0.0 | 0.00 | 0.31 | 0.00 | 82 | 1013.6 |
| 20260831124044 | 74 | 197 | 0.0 | 0.0 | 0.00 | 0.31 | 0.00 | 82 | 1013.6 |
| 20260831123718 | 74 | 197 | 0.0 | 0.0 | 0.00 | 0.31 | 0.00 | 82 | 1013.6 |
| 20260831123612 | 74 | 197 | 0.0 | 0.0 | 0.00 | 0.31 | 0.00 | 82 | 1013.6 |
| 20260831123507 | 74 | 198 | 0.0 | 2.0 | 0.00 | 0.32 | 0.00 | 82 | 1013.6 |
| 20260831123145 | 74 | 238 | 0.0 | 3.0 | 0.00 | 0.32 | 0.00 | 82 | 1013.7 |
| 20260831123038 | 74 | 194 | 0.0 | 0.0 | 0.00 | 0.32 | 0.00 | 82 | 1013.6 |
| 20260831122931 | 74 | 178 | 0.0 | 1.0 | 0.00 | 0.32 | 0.00 | 82 | 1013.6 |
| 20260831122828 | 74 | 185 | 0.0 | 1.0 | 0.00 | 0.32 | 0.00 | 82 | 1013.6 |
| 20260831122500 | 74 | 175 | 0.0 | 0.0 | 0.00 | 0.33 | 0.00 | 82 | 1013.5 |
| 20260831122134 | 74 | 175 | 0.0 | 3.0 | 0.00 | 0.33 | 0.00 | 82 | 1013.5 |
| 20260831121329 | 74 | 173 | 0.0 | 0.0 | 0.00 | 0.33 | 0.00 | 83 | 1013.5 |
| 20260831121222 | 74 | 178 | 0.0 | 0.0 | 0.00 | 0.33 | 0.00 | 83 | 1013.4 |
| 20260831121116 | 74 | 177 | 0.0 | 0.0 | 0.00 | 0.33 | 0.00 | 83 | 1013.5 |
| 20260831120750 | 74 | 162 | 0.0 | 0.0 | 0.00 | 0.33 | 0.00 | 83 | 1013.5 |
| 20260831120647 | 74 | 162 | 0.0 | 0.0 | 0.00 | 0.33 | 0.00 | 83 | 1013.5 |
| 20260831120541 | 74 | 161 | 0.0 | 0.0 | 0.00 | 0.33 | 0.00 | 83 | 1013.5 |
| 20260831120438 | 74 | 159 | 0.0 | 0.0 | 0.00 | 0.33 | 0.00 | 83 | 1013.5 |
| 20260831120336 | 74 | 159 | 0.0 | 0.0 | 0.00 | 0.33 | 0.00 | 83 | 1013.5 |
| 20260831120005 | 74 | 144 | 0.0 | 0.0 | 0.00 | 0.33 | 0.00 | 83 | 1013.5 |
| 20260831115901 | 73 | 144 | 0.0 | 0.0 | 0.00 | 0.33 | 0.00 | 83 | 1013.5 |
| 20260831115755 | 73 | 144 | 0.0 | 0.0 | 0.00 | 0.33 | 0.00 | 83 | 1013.5 |
| 20260831115649 | 73 | 144 | 0.0 | 0.0 | 0.00 | 0.33 | 0.00 | 83 | 1013.5 |
| 20260831115543 | 73 | 144 | 0.0 | 0.0 | 0.00 | 0.33 | 0.00 | 83 | 1013.5 |
| 20260831115441 | 73 | 144 | 0.0 | 0.0 | 0.00 | 0.33 | 0.00 | 83 | 1013.5 |
| 20260831115335 | 73 | 144 | 0.0 | 1.0 | 0.00 | 0.33 | 0.00 | 83 | 1013.5 |
| 20260831115228 | 73 | 160 | 0.0 | 0.0 | 0.00 | 0.33 | 0.00 | 83 | 1013.5 |
| 20260831115123 | 73 | 187 | 0.0 | 0.0 | 0.00 | 0.33 | 0.00 | 83 | 1013.5 |
| 20260831115018 | 73 | 187 | 0.0 | 0.0 | 0.00 | 0.33 | 0.00 | 83 | 1013.5 |
| 20260831114912 | 73 | 187 | 0.0 | 0.0 | 0.00 | 0.33 | 0.00 | 83 | 1013.5 |
| 20260831114805 | 73 | 187 | 0.0 | 0.0 | 0.00 | 0.33 | 0.00 | 83 | 1013.6 |
| 20260831114658 | 73 | 187 | 0.0 | 0.0 | 0.00 | 0.33 | 0.00 | 83 | 1013.5 |
| 20260831114557 | 73 | 190 | 0.0 | 0.0 | 0.00 | 0.33 | 0.00 | 83 | 1013.6 |
| 20260831114453 | 73 | 189 | 0.0 | 0.0 | 0.00 | 0.33 | 0.00 | 83 | 1013.6 |
| 20260831114347 | 73 | 189 | 0.0 | 1.0 | 0.00 | 0.33 | 0.00 | 83 | 1013.5 |
| 20260831114026 | 73 | 196 | 0.0 | 0.0 | 0.00 | 0.33 | 0.00 | 83 | 1013.5 |
| 20260831113919 | 73 | 196 | 0.0 | 0.0 | 0.00 | 0.33 | 0.00 | 83 | 1013.6 |
| 20260831113811 | 73 | 196 | 0.0 | 0.0 | 0.00 | 0.33 | 0.00 | 83 | 1013.5 |
| 20260831113709 | 73 | 196 | 0.0 | 0.0 | 0.00 | 0.33 | 0.00 | 83 | 1013.6 |
| 20260831113605 | 73 | 196 | 0.0 | 0.0 | 0.00 | 0.33 | 0.00 | 83 | 1013.6 |
| 20260831113500 | 73 | 196 | 0.0 | 0.0 | 0.00 | 0.33 | 0.00 | 83 | 1013.6 |
| 20260831113352 | 73 | 196 | 0.0 | 1.0 | 0.00 | 0.33 | 0.00 | 83 | 1013.6 |
| 20260831113029 | 73 | 196 | 0.0 | 1.0 | 0.00 | 0.33 | 0.00 | 84 | 1013.6 |
| 20260831112921 | 73 | 194 | 0.0 | 1.0 | 0.00 | 0.33 | 0.00 | 84 | 1013.5 |
| 20260831112817 | 73 | 184 | 0.0 | 0.0 | 0.00 | 0.33 | 0.00 | 84 | 1013.5 |
| 20260831112711 | 73 | 184 | 0.0 | 0.0 | 0.00 | 0.33 | 0.00 | 84 | 1013.5 |
| 20260831112130 | 73 | 184 | 0.0 | 0.0 | 0.00 | 0.33 | 0.00 | 84 | 1013.5 |
| 20260831111551 | 73 | 184 | 0.0 | 0.0 | 0.00 | 0.33 | 0.00 | 84 | 1013.5 |
| 20260831111446 | 73 | 184 | 0.0 | 0.0 | 0.00 | 0.33 | 0.00 | 84 | 1013.5 |
| 20260831111339 | 73 | 184 | 0.0 | 0.0 | 0.00 | 0.33 | 0.00 | 84 | 1013.5 |
| 20260831111234 | 73 | 184 | 0.0 | 0.0 | 0.00 | 0.33 | 0.00 | 84 | 1013.5 |
| 20260831111127 | 73 | 184 | 0.0 | 0.0 | 0.00 | 0.33 | 0.00 | 84 | 1013.5 |
| 20260831111021 | 72 | 173 | 0.0 | 0.0 | 0.00 | 0.33 | 0.00 | 84 | 1013.5 |
| 20260831110915 | 72 | 173 | 0.0 | 0.0 | 0.00 | 0.33 | 0.00 | 84 | 1013.5 |
| 20260831110809 | 72 | 173 | 0.0 | 0.0 | 0.00 | 0.33 | 0.00 | 84 | 1013.5 |
| 20260831110702 | 72 | 173 | 0.0 | 0.0 | 0.00 | 0.33 | 0.00 | 84 | 1013.5 |
| 20260831110600 | 72 | 173 | 0.0 | 0.0 | 0.00 | 0.33 | 0.00 | 84 | 1013.5 |
| 20260831110452 | 72 | 173 | 0.0 | 0.0 | 0.00 | 0.33 | 0.00 | 84 | 1013.5 |
| 20260831110345 | 72 | 173 | 0.0 | 0.0 | 0.00 | 0.33 | 0.00 | 84 | 1013.5 |
| 20260831110024 | 72 | 173 | 0.0 | 0.0 | 0.00 | 0.33 | 0.00 | 84 | 1013.5 |
| 20260831105920 | 72 | 173 | 0.0 | 0.0 | 0.00 | 0.33 | 0.00 | 84 | 1013.4 |
| 20260831105814 | 72 | 173 | 0.0 | 0.0 | 0.00 | 0.33 | 0.00 | 84 | 1013.5 |
| 20260831105712 | 72 | 173 | 0.0 | 0.0 | 0.00 | 0.33 | 0.00 | 84 | 1013.4 |
| 20260831105609 | 72 | 173 | 0.0 | 0.0 | 0.00 | 0.33 | 0.00 | 84 | 1013.5 |
| 20260831105502 | 72 | 173 | 0.0 | 0.0 | 0.00 | 0.33 | 0.00 | 84 | 1013.5 |
| 20260831105358 | 72 | 173 | 0.0 | 0.0 | 0.00 | 0.33 | 0.00 | 84 | 1013.5 |
| 20260831105255 | 72 | 173 | 0.0 | 0.0 | 0.00 | 0.33 | 0.00 | 84 | 1013.5 |
| 20260831105149 | 72 | 173 | 0.0 | 0.0 | 0.00 | 0.33 | 0.00 | 84 | 1013.5 |
| 20260831105046 | 72 | 173 | 0.0 | 0.0 | 0.00 | 0.33 | 0.00 | 84 | 1013.5 |
| 20260831104941 | 72 | 173 | 0.0 | 0.0 | 0.00 | 0.33 | 0.00 | 84 | 1013.5 |
| 20260831104838 | 72 | 173 | 0.0 | 0.0 | 0.00 | 0.33 | 0.00 | 84 | 1013.4 |
| 20260831104733 | 72 | 173 | 0.0 | 0.0 | 0.00 | 0.33 | 0.00 | 84 | 1013.4 |
| 20260831104629 | 72 | 173 | 0.0 | 0.0 | 0.00 | 0.33 | 0.00 | 84 | 1013.4 |
| 20260831104523 | 72 | 173 | 0.0 | 0.0 | 0.00 | 0.33 | 0.00 | 84 | 1013.4 |
| 20260831104421 | 72 | 173 | 0.0 | 0.0 | 0.00 | 0.33 | 0.00 | 84 | 1013.3 |
| 20260831104318 | 72 | 173 | 0.0 | 0.0 | 0.00 | 0.33 | 0.00 | 84 | 1013.3 |
| 20260831104210 | 72 | 173 | 0.0 | 0.0 | 0.00 | 0.33 | 0.00 | 84 | 1013.4 |
| 20260831104103 | 72 | 173 | 0.0 | 0.0 | 0.00 | 0.33 | 0.00 | 84 | 1013.4 |
| 20260831104000 | 72 | 173 | 0.0 | 0.0 | 0.00 | 0.33 | 0.00 | 84 | 1013.3 |
| 20260831103856 | 72 | 173 | 0.0 | 0.0 | 0.00 | 0.33 | 0.00 | 84 | 1013.3 |
| 20260831103749 | 72 | 173 | 0.0 | 0.0 | 0.00 | 0.33 | 0.00 | 84 | 1013.4 |
| 20260831103645 | 72 | 173 | 0.0 | 0.0 | 0.00 | 0.33 | 0.00 | 84 | 1013.4 |
| 20260831103326 | 72 | 173 | 0.0 | 0.0 | 0.00 | 0.33 | 0.00 | 84 | 1013.4 |
| 20260831103221 | 72 | 173 | 0.0 | 0.0 | 0.00 | 0.33 | 0.00 | 84 | 1013.4 |
| 20260831103116 | 72 | 173 | 0.0 | 0.0 | 0.00 | 0.33 | 0.00 | 84 | 1013.4 |
| 20260831102751 | 72 | 173 | 0.0 | 0.0 | 0.00 | 0.33 | 0.00 | 84 | 1013.5 |
| 20260831102648 | 72 | 173 | 0.0 | 0.0 | 0.00 | 0.33 | 0.00 | 84 | 1013.5 |
| 20260831102545 | 72 | 173 | 0.0 | 0.0 | 0.00 | 0.33 | 0.00 | 84 | 1013.5 |
| 20260831101735 | 72 | 173 | 0.0 | 0.0 | 0.00 | 0.33 | 0.00 | 84 | 1013.5 |
| 20260831101631 | 72 | 173 | 0.0 | 0.0 | 0.00 | 0.33 | 0.00 | 84 | 1013.5 |
| 20260831101528 | 72 | 173 | 0.0 | 0.0 | 0.00 | 0.33 | 0.00 | 84 | 1013.5 |
| 20260831101426 | 72 | 173 | 0.0 | 0.0 | 0.00 | 0.33 | 0.00 | 84 | 1013.5 |
| 20260831101320 | 72 | 173 | 0.0 | 0.0 | 0.00 | 0.33 | 0.00 | 84 | 1013.5 |
| 20260831101213 | 72 | 173 | 0.0 | 0.0 | 0.00 | 0.33 | 0.00 | 85 | 1013.5 |
| 20260831101111 | 72 | 173 | 0.0 | 0.0 | 0.00 | 0.33 | 0.00 | 84 | 1013.5 |
| 20260831101008 | 72 | 173 | 0.0 | 0.0 | 0.00 | 0.33 | 0.00 | 85 | 1013.5 |
| 20260831100901 | 72 | 173 | 0.0 | 0.0 | 0.00 | 0.33 | 0.00 | 85 | 1013.6 |
| 20260831100758 | 72 | 173 | 0.0 | 0.0 | 0.00 | 0.33 | 0.00 | 85 | 1013.6 |
| 20260831100653 | 72 | 173 | 0.0 | 0.0 | 0.00 | 0.33 | 0.00 | 85 | 1013.6 |
| 20260831100548 | 72 | 173 | 0.0 | 0.0 | 0.00 | 0.33 | 0.00 | 85 | 1013.6 |
| 20260831100446 | 72 | 173 | 0.0 | 0.0 | 0.00 | 0.33 | 0.00 | 85 | 1013.5 |
| 20260831100343 | 72 | 173 | 0.0 | 0.0 | 0.00 | 0.33 | 0.00 | 85 | 1013.6 |
| 20260831100022 | 72 | 171 | 0.0 | 0.0 | 0.00 | 0.33 | 0.00 | 85 | 1013.5 |
| 20260831095657 | 72 | 171 | 0.0 | 0.0 | 0.00 | 0.33 | 0.00 | 85 | 1013.5 |
| 20260831095550 | 72 | 171 | 0.0 | 0.0 | 0.00 | 0.33 | 0.00 | 85 | 1013.5 |
| 20260831095448 | 72 | 171 | 0.0 | 0.0 | 0.00 | 0.33 | 0.00 | 85 | 1013.5 |
| 20260831095343 | 72 | 171 | 0.0 | 0.0 | 0.00 | 0.33 | 0.00 | 85 | 1013.5 |
| 20260831095240 | 72 | 171 | 0.0 | 0.0 | 0.00 | 0.33 | 0.00 | 85 | 1013.5 |
| 20260831095137 | 72 | 171 | 0.0 | 0.0 | 0.00 | 0.33 | 0.00 | 85 | 1013.5 |
| 20260831095032 | 72 | 171 | 0.0 | 0.0 | 0.00 | 0.33 | 0.00 | 85 | 1013.5 |
| 20260831094704 | 72 | 171 | 0.0 | 1.0 | 0.00 | 0.33 | 0.00 | 85 | 1013.6 |
| 20260831094559 | 72 | 171 | 0.0 | 1.0 | 0.00 | 0.33 | 0.00 | 85 | 1013.5 |
| 20260831094234 | 72 | 192 | 0.0 | 0.0 | 0.00 | 0.33 | 0.00 | 85 | 1013.5 |
| 20260831094127 | 72 | 192 | 0.0 | 0.0 | 0.00 | 0.33 | 0.00 | 85 | 1013.5 |
| 20260831093803 | 72 | 184 | 0.0 | 1.0 | 0.00 | 0.33 | 0.00 | 85 | 1013.5 |
| 20260831093700 | 72 | 167 | 0.0 | 0.0 | 0.00 | 0.33 | 0.00 | 85 | 1013.5 |
| 20260831093554 | 72 | 167 | 0.0 | 0.0 | 0.00 | 0.33 | 0.00 | 85 | 1013.5 |
| 20260831093232 | 72 | 167 | 0.0 | 0.0 | 0.00 | 0.33 | 0.00 | 85 | 1013.5 |
| 20260831093126 | 72 | 167 | 0.0 | 0.0 | 0.00 | 0.33 | 0.00 | 85 | 1013.5 |
| 20260831093024 | 72 | 167 | 0.0 | 0.0 | 0.00 | 0.33 | 0.00 | 85 | 1013.5 |
| 20260831092657 | 72 | 167 | 0.0 | 0.0 | 0.00 | 0.33 | 0.00 | 85 | 1013.4 |
| 20260831092551 | 73 | 167 | 0.0 | 0.0 | 0.00 | 0.33 | 0.00 | 85 | 1013.4 |
| 20260831092010 | 73 | 168 | 0.0 | 0.0 | 0.00 | 0.33 | 0.00 | 84 | 1013.4 |
| 20260831091908 | 73 | 168 | 0.0 | 0.0 | 0.00 | 0.33 | 0.00 | 84 | 1013.4 |
| 20260831091803 | 73 | 167 | 0.0 | 0.0 | 0.00 | 0.33 | 0.00 | 84 | 1013.4 |
| 20260831091657 | 73 | 167 | 0.0 | 0.0 | 0.00 | 0.33 | 0.00 | 84 | 1013.4 |
| 20260831091552 | 73 | 167 | 0.0 | 0.0 | 0.00 | 0.33 | 0.00 | 84 | 1013.3 |
| 20260831091446 | 73 | 167 | 0.0 | 0.0 | 0.00 | 0.33 | 0.00 | 84 | 1013.4 |
| 20260831091125 | 73 | 168 | 0.0 | 0.0 | 0.00 | 0.33 | 0.00 | 84 | 1013.4 |
| 20260831091021 | 73 | 167 | 0.0 | 0.0 | 0.00 | 0.33 | 0.00 | 84 | 1013.4 |
| 20260831090918 | 73 | 165 | 0.0 | 0.0 | 0.00 | 0.33 | 0.00 | 84 | 1013.3 |
| 20260831090812 | 73 | 193 | 0.0 | 0.0 | 0.00 | 0.33 | 0.00 | 84 | 1013.4 |
| 20260831090705 | 73 | 229 | 0.0 | 0.0 | 0.00 | 0.33 | 0.00 | 84 | 1013.4 |
| 20260831090600 | 73 | 317 | 0.0 | 2.0 | 0.00 | 0.33 | 0.00 | 84 | 1013.4 |
| 20260831090452 | 73 | 318 | 0.0 | 2.0 | 0.00 | 0.33 | 0.00 | 84 | 1013.4 |
| 20260831090350 | 73 | 182 | 0.0 | 2.0 | 0.00 | 0.33 | 0.00 | 84 | 1013.4 |
| 20260831090247 | 73 | 182 | 0.0 | 2.0 | 0.00 | 0.33 | 0.00 | 84 | 1013.4 |
| 20260831085925 | 73 | 209 | 0.0 | 0.0 | 0.00 | 0.33 | 0.00 | 84 | 1013.4 |
| 20260831085341 | 73 | 190 | 0.0 | 0.0 | 0.00 | 0.33 | 0.00 | 83 | 1013.4 |
| 20260831085238 | 73 | 190 | 0.0 | 0.0 | 0.00 | 0.33 | 0.00 | 83 | 1013.4 |
| 20260831084655 | 73 | 188 | 0.0 | 2.0 | 0.00 | 0.33 | 0.00 | 84 | 1013.4 |
| 20260831084553 | 73 | 184 | 0.0 | 0.0 | 0.00 | 0.33 | 0.00 | 83 | 1013.4 |
| 20260831084451 | 73 | 192 | 0.0 | 0.0 | 0.00 | 0.33 | 0.00 | 83 | 1013.4 |
| 20260831084346 | 73 | 192 | 0.0 | 0.0 | 0.00 | 0.33 | 0.00 | 83 | 1013.4 |
| 20260831084243 | 73 | 192 | 0.0 | 0.0 | 0.00 | 0.33 | 0.00 | 83 | 1013.4 |
| 20260831084136 | 73 | 192 | 0.0 | 0.0 | 0.00 | 0.33 | 0.00 | 83 | 1013.4 |
| 20260831084032 | 73 | 192 | 0.0 | 0.0 | 0.00 | 0.33 | 0.00 | 83 | 1013.4 |
| 20260831083928 | 73 | 192 | 0.0 | 0.0 | 0.00 | 0.33 | 0.00 | 83 | 1013.3 |
| 20260831083825 | 73 | 192 | 0.0 | 0.0 | 0.00 | 0.33 | 0.00 | 83 | 1013.3 |
| 20260831083456 | 73 | 192 | 0.0 | 0.0 | 0.00 | 0.33 | 0.00 | 83 | 1013.3 |
| 20260831083349 | 73 | 211 | 0.0 | 0.0 | 0.00 | 0.33 | 0.00 | 83 | 1013.3 |
| 20260831083243 | 73 | 211 | 0.0 | 2.0 | 0.00 | 0.33 | 0.00 | 83 | 1013.3 |
| 20260831083136 | 73 | 211 | 0.0 | 2.0 | 0.00 | 0.33 | 0.00 | 83 | 1013.3 |
| 20260831083032 | 73 | 183 | 0.0 | 0.0 | 0.00 | 0.33 | 0.00 | 83 | 1013.3 |
| 20260831082930 | 73 | 183 | 0.0 | 0.0 | 0.00 | 0.33 | 0.00 | 83 | 1013.3 |
| 20260831082824 | 73 | 198 | 0.0 | 0.0 | 0.00 | 0.33 | 0.00 | 83 | 1013.3 |
| 20260831082717 | 73 | 198 | 0.0 | 0.0 | 0.00 | 0.33 | 0.00 | 83 | 1013.3 |
| 20260831082611 | 73 | 198 | 0.0 | 0.0 | 0.00 | 0.33 | 0.00 | 83 | 1013.3 |
| 20260831082507 | 73 | 198 | 0.0 | 0.0 | 0.00 | 0.33 | 0.00 | 83 | 1013.3 |
| 20260831082400 | 73 | 200 | 0.0 | 0.0 | 0.00 | 0.33 | 0.00 | 83 | 1013.3 |
| 20260831082255 | 73 | 200 | 0.0 | 2.0 | 0.00 | 0.33 | 0.00 | 83 | 1013.3 |
| 20260831082150 | 73 | 229 | 0.0 | 2.0 | 0.00 | 0.33 | 0.00 | 83 | 1013.3 |
| 20260831082048 | 73 | 236 | 0.0 | 2.0 | 0.00 | 0.33 | 0.00 | 83 | 1013.4 |
| 20260831081945 | 73 | 236 | 0.0 | 2.0 | 0.00 | 0.33 | 0.00 | 83 | 1013.3 |
| 20260831081838 | 73 | 173 | 0.0 | 1.0 | 0.00 | 0.33 | 0.00 | 83 | 1013.3 |
| 20260831081731 | 73 | 169 | 0.0 | 1.0 | 0.00 | 0.33 | 0.00 | 83 | 1013.3 |
| 20260831081627 | 73 | 186 | 0.0 | 0.0 | 0.00 | 0.34 | 0.00 | 83 | 1013.3 |
| 20260831081520 | 73 | 186 | 0.0 | 0.0 | 0.00 | 0.34 | 0.00 | 83 | 1013.3 |
| 20260831081415 | 73 | 200 | 0.0 | 3.0 | 0.00 | 0.34 | 0.00 | 83 | 1013.3 |
| 20260831081312 | 73 | 192 | 0.0 | 3.0 | 0.00 | 0.34 | 0.00 | 83 | 1013.3 |
| 20260831081207 | 73 | 171 | 0.0 | 0.0 | 0.00 | 0.34 | 0.00 | 83 | 1013.3 |
| 20260831081059 | 73 | 171 | 0.0 | 0.0 | 0.00 | 0.34 | 0.00 | 83 | 1013.2 |
| 20260831080953 | 73 | 196 | 0.0 | 0.0 | 0.00 | 0.34 | 0.00 | 82 | 1013.2 |
| 20260831080848 | 73 | 175 | 0.0 | 4.0 | 0.00 | 0.34 | 0.00 | 82 | 1013.2 |
| 20260831080741 | 73 | 175 | 0.0 | 4.0 | 0.00 | 0.34 | 0.00 | 82 | 1013.2 |
| 20260831080422 | 73 | 244 | 0.0 | 0.0 | 0.00 | 0.34 | 0.00 | 82 | 1013.1 |
| 20260831080320 | 73 | 163 | 0.0 | 0.0 | 0.00 | 0.34 | 0.00 | 82 | 1013.1 |
| 20260831080213 | 73 | 163 | 0.0 | 1.0 | 0.00 | 0.34 | 0.00 | 82 | 1013.1 |
| 20260831080110 | 73 | 185 | 0.0 | 1.0 | 0.00 | 0.34 | 0.00 | 82 | 1013.2 |
| 20260831080004 | 74 | 188 | 0.0 | 0.0 | 0.00 | 0.34 | 0.00 | 82 | 1013.2 |
| 20260831075902 | 74 | 188 | 0.0 | 1.0 | 0.00 | 0.34 | 0.00 | 82 | 1013.2 |
| 20260831075756 | 74 | 188 | 0.0 | 1.0 | 0.00 | 0.34 | 0.00 | 82 | 1013.2 |
| 20260831075653 | 74 | 202 | 0.0 | 3.0 | 0.00 | 0.34 | 0.00 | 82 | 1013.2 |
| 20260831075107 | 74 | 186 | 0.0 | 0.0 | 0.00 | 0.34 | 0.00 | 82 | 1013.3 |
| 20260831075004 | 74 | 186 | 0.0 | 0.0 | 0.00 | 0.34 | 0.00 | 82 | 1013.4 |
| 20260831074859 | 74 | 186 | 0.0 | 0.0 | 0.00 | 0.34 | 0.00 | 82 | 1013.4 |
| 20260831074755 | 74 | 186 | 0.0 | 0.0 | 0.00 | 0.34 | 0.00 | 82 | 1013.4 |
| 20260831074651 | 74 | 186 | 0.0 | 0.0 | 0.00 | 0.34 | 0.00 | 82 | 1013.4 |
| 20260831074325 | 74 | 186 | 0.0 | 0.0 | 0.00 | 0.34 | 0.00 | 82 | 1013.4 |
| 20260831074222 | 74 | 186 | 0.0 | 0.0 | 0.00 | 0.34 | 0.00 | 81 | 1013.4 |
| 20260831074118 | 74 | 186 | 0.0 | 0.0 | 0.00 | 0.34 | 0.00 | 81 | 1013.4 |
| 20260831073749 | 74 | 188 | 0.0 | 2.0 | 0.00 | 0.34 | 0.00 | 81 | 1013.4 |
| 20260831073642 | 74 | 188 | 0.0 | 2.0 | 0.00 | 0.34 | 0.00 | 81 | 1013.4 |
| 20260831073539 | 74 | 163 | 0.0 | 0.0 | 0.00 | 0.34 | 0.00 | 81 | 1013.4 |
| 20260831073431 | 74 | 163 | 0.0 | 1.0 | 0.00 | 0.34 | 0.00 | 81 | 1013.4 |
| 20260831073329 | 74 | 163 | 0.0 | 1.0 | 0.00 | 0.34 | 0.00 | 81 | 1013.3 |
| 20260831073223 | 74 | 161 | 0.0 | 0.0 | 0.00 | 0.34 | 0.00 | 81 | 1013.4 |
| 20260831073121 | 74 | 160 | 0.0 | 3.0 | 0.00 | 0.34 | 0.00 | 81 | 1013.4 |
| 20260831073016 | 74 | 161 | 0.0 | 3.0 | 0.00 | 0.34 | 0.00 | 81 | 1013.4 |
| 20260831072914 | 74 | 174 | 0.0 | 0.0 | 0.00 | 0.34 | 0.00 | 81 | 1013.4 |
| 20260831072808 | 74 | 175 | 0.0 | 0.0 | 0.00 | 0.34 | 0.00 | 81 | 1013.5 |
| 20260831072705 | 74 | 176 | 0.0 | 0.0 | 0.00 | 0.34 | 0.00 | 81 | 1013.5 |
| 20260831072557 | 74 | 175 | 0.0 | 0.0 | 0.00 | 0.34 | 0.00 | 81 | 1013.6 |
| 20260831072451 | 74 | 175 | 0.0 | 0.0 | 0.00 | 0.34 | 0.00 | 81 | 1013.6 |
| 20260831072343 | 74 | 175 | 0.0 | 2.0 | 0.00 | 0.34 | 0.00 | 81 | 1013.6 |
| 20260831072240 | 74 | 174 | 0.0 | 0.0 | 0.00 | 0.34 | 0.00 | 81 | 1013.7 |
| 20260831072135 | 74 | 204 | 0.0 | 0.0 | 0.00 | 0.34 | 0.00 | 81 | 1013.7 |
| 20260831072029 | 74 | 205 | 0.0 | 0.0 | 0.00 | 0.34 | 0.00 | 81 | 1013.7 |
| 20260831071922 | 74 | 205 | 0.0 | 0.0 | 0.00 | 0.34 | 0.00 | 81 | 1013.7 |
| 20260831071814 | 74 | 205 | 0.0 | 0.0 | 0.00 | 0.34 | 0.00 | 81 | 1013.8 |
| 20260831071710 | 74 | 205 | 0.0 | 1.0 | 0.00 | 0.34 | 0.00 | 81 | 1013.8 |
| 20260831071344 | 74 | 163 | 0.0 | 0.0 | 0.00 | 0.34 | 0.00 | 81 | 1013.9 |
| 20260831071237 | 74 | 163 | 0.0 | 4.0 | 0.00 | 0.34 | 0.00 | 81 | 1013.9 |
| 20260831071132 | 74 | 182 | 0.0 | 4.0 | 0.00 | 0.34 | 0.00 | 81 | 1013.9 |
| 20260831070812 | 74 | 176 | 0.0 | 2.0 | 0.00 | 0.34 | 0.00 | 81 | 1014.0 |
| 20260831070707 | 74 | 164 | 0.0 | 0.0 | 0.00 | 0.34 | 0.00 | 81 | 1014.0 |
| 20260831070602 | 74 | 164 | 0.0 | 0.0 | 0.00 | 0.34 | 0.00 | 81 | 1014.0 |
| 20260831070456 | 74 | 164 | 0.0 | 4.0 | 0.00 | 0.34 | 0.00 | 81 | 1014.0 |
| 20260831070132 | 74 | 226 | 0.0 | 4.0 | 0.00 | 0.34 | 0.00 | 82 | 1014.1 |
| 20260831070026 | 74 | 196 | 0.0 | 4.0 | 0.00 | 0.34 | 0.00 | 82 | 1014.1 |
| 20260831065442 | 73 | 179 | 0.0 | 0.0 | 0.00 | 0.34 | 0.00 | 82 | 1014.1 |
| 20260831065337 | 73 | 179 | 0.0 | 0.0 | 0.00 | 0.34 | 0.00 | 83 | 1014.1 |
| 20260831065231 | 73 | 216 | 0.0 | 0.0 | 0.00 | 0.34 | 0.00 | 83 | 1014.1 |
| 20260831065129 | 73 | 182 | 0.0 | 0.0 | 0.00 | 0.34 | 0.00 | 83 | 1014.2 |
| 20260831065023 | 73 | 181 | 0.0 | 0.0 | 0.00 | 0.34 | 0.00 | 83 | 1014.1 |
| 20260831064920 | 73 | 180 | 0.0 | 0.0 | 0.00 | 0.34 | 0.00 | 83 | 1014.2 |
| 20260831064812 | 73 | 180 | 0.0 | 0.0 | 0.00 | 0.34 | 0.00 | 83 | 1014.2 |
| 20260831064706 | 73 | 180 | 0.0 | 1.0 | 0.00 | 0.34 | 0.00 | 83 | 1014.2 |
| 20260831064604 | 73 | 180 | 0.0 | 1.0 | 0.00 | 0.34 | 0.00 | 84 | 1014.1 |
| 20260831064458 | 73 | 194 | 0.0 | 0.0 | 0.00 | 0.34 | 0.00 | 84 | 1014.1 |
| 20260831064352 | 72 | 196 | 0.0 | 0.0 | 0.00 | 0.34 | 0.00 | 84 | 1014.2 |
| 20260831064026 | 72 | 179 | 0.0 | 0.0 | 0.00 | 0.34 | 0.00 | 85 | 1014.2 |
| 20260831063920 | 72 | 177 | 0.0 | 0.0 | 0.00 | 0.34 | 0.00 | 85 | 1014.2 |
| 20260831063814 | 72 | 178 | 0.0 | 0.0 | 0.00 | 0.34 | 0.00 | 86 | 1014.2 |
| 20260831063711 | 72 | 178 | 0.0 | 0.0 | 0.00 | 0.34 | 0.00 | 86 | 1014.2 |
| 20260831063606 | 72 | 176 | 0.0 | 0.0 | 0.00 | 0.34 | 0.00 | 86 | 1014.2 |
| 20260831063503 | 71 | 176 | 0.0 | 0.0 | 0.00 | 0.34 | 0.00 | 86 | 1014.2 |
| 20260831063358 | 71 | 177 | 0.0 | 0.0 | 0.00 | 0.34 | 0.00 | 87 | 1014.2 |
| 20260831063253 | 71 | 177 | 0.0 | 0.0 | 0.00 | 0.34 | 0.00 | 87 | 1014.2 |
| 20260831063151 | 71 | 167 | 0.0 | 0.0 | 0.00 | 0.34 | 0.00 | 87 | 1014.2 |
| 20260831063049 | 71 | 167 | 0.0 | 0.0 | 0.00 | 0.34 | 0.00 | 88 | 1014.1 |
| 20260831062943 | 71 | 166 | 0.0 | 0.0 | 0.00 | 0.34 | 0.00 | 88 | 1014.1 |
| 20260831062836 | 71 | 166 | 0.0 | 0.0 | 0.00 | 0.34 | 0.00 | 88 | 1014.1 |
| 20260831062732 | 71 | 166 | 0.0 | 0.0 | 0.00 | 0.34 | 0.00 | 88 | 1014.2 |
| 20260831062630 | 71 | 166 | 0.0 | 0.0 | 0.00 | 0.34 | 0.00 | 88 | 1014.2 |
| 20260831062523 | 71 | 164 | 0.0 | 0.0 | 0.00 | 0.34 | 0.00 | 88 | 1014.1 |
| 20260831062420 | 71 | 163 | 0.0 | 0.0 | 0.00 | 0.34 | 0.00 | 88 | 1014.2 |
| 20260831062314 | 71 | 163 | 0.0 | 0.0 | 0.00 | 0.34 | 0.00 | 88 | 1014.1 |
| 20260831062208 | 70 | 163 | 0.0 | 0.0 | 0.00 | 0.34 | 0.00 | 88 | 1014.1 |
| 20260831061840 | 71 | 163 | 0.0 | 0.0 | 0.00 | 0.34 | 0.00 | 88 | 1014.3 |
| 20260831061733 | 71 | 163 | 0.0 | 0.0 | 0.00 | 0.34 | 0.00 | 88 | 1014.3 |
| 20260831061406 | 71 | 163 | 0.0 | 0.0 | 0.00 | 0.34 | 0.00 | 88 | 1014.4 |
| 20260831061300 | 71 | 163 | 0.0 | 0.0 | 0.00 | 0.34 | 0.00 | 88 | 1014.4 |
| 20260831061158 | 71 | 163 | 0.0 | 0.0 | 0.00 | 0.34 | 0.00 | 88 | 1014.4 |
| 20260831061051 | 71 | 163 | 0.0 | 0.0 | 0.00 | 0.34 | 0.00 | 87 | 1014.5 |
| 20260831060943 | 71 | 163 | 0.0 | 0.0 | 0.00 | 0.34 | 0.00 | 87 | 1014.4 |
| 20260831060838 | 71 | 163 | 0.0 | 0.0 | 0.00 | 0.34 | 0.00 | 87 | 1014.4 |
| 20260831060729 | 71 | 163 | 0.0 | 0.0 | 0.00 | 0.34 | 0.00 | 87 | 1014.4 |
| 20260831060406 | 71 | 163 | 0.0 | 0.0 | 0.00 | 0.34 | 0.00 | 87 | 1014.4 |
| 20260831060304 | 71 | 163 | 0.0 | 0.0 | 0.00 | 0.34 | 0.00 | 87 | 1014.4 |
| 20260831060202 | 71 | 163 | 0.0 | 0.0 | 0.00 | 0.34 | 0.00 | 87 | 1014.5 |
| 20260831060059 | 71 | 163 | 0.0 | 0.0 | 0.00 | 0.34 | 0.00 | 87 | 1014.5 |
| 20260831055952 | 71 | 163 | 0.0 | 0.0 | 0.00 | 0.34 | 0.00 | 87 | 1014.4 |
| 20260831055849 | 71 | 163 | 0.0 | 0.0 | 0.00 | 0.34 | 0.00 | 87 | 1014.4 |
| 20260831055743 | 71 | 163 | 0.0 | 0.0 | 0.00 | 0.34 | 0.00 | 86 | 1014.4 |
| 20260831055419 | 71 | 163 | 0.0 | 0.0 | 0.00 | 0.34 | 0.00 | 86 | 1014.3 |
| 20260831055313 | 71 | 163 | 0.0 | 0.0 | 0.00 | 0.34 | 0.00 | 86 | 1014.3 |
| 20260831055206 | 71 | 163 | 0.0 | 0.0 | 0.00 | 0.34 | 0.00 | 86 | 1014.3 |
| 20260831055104 | 71 | 163 | 0.0 | 0.0 | 0.00 | 0.34 | 0.00 | 86 | 1014.3 |
| 20260831055001 | 71 | 163 | 0.0 | 0.0 | 0.00 | 0.34 | 0.00 | 86 | 1014.3 |
| 20260831054636 | 71 | 163 | 0.0 | 0.0 | 0.00 | 0.34 | 0.00 | 85 | 1014.3 |
| 20260831054532 | 71 | 163 | 0.0 | 0.0 | 0.00 | 0.34 | 0.00 | 85 | 1014.3 |
| 20260831054429 | 72 | 163 | 0.0 | 0.0 | 0.00 | 0.34 | 0.00 | 86 | 1014.3 |
| 20260831054327 | 72 | 163 | 0.0 | 0.0 | 0.00 | 0.34 | 0.00 | 86 | 1014.3 |
| 20260831054223 | 72 | 163 | 0.0 | 0.0 | 0.00 | 0.34 | 0.00 | 85 | 1014.3 |
| 20260831054115 | 72 | 163 | 0.0 | 0.0 | 0.00 | 0.34 | 0.00 | 85 | 1014.3 |
| 20260831053748 | 72 | 163 | 0.0 | 0.0 | 0.00 | 0.34 | 0.00 | 85 | 1014.2 |
| 20260831053644 | 72 | 163 | 0.0 | 0.0 | 0.00 | 0.34 | 0.00 | 85 | 1014.2 |
| 20260831053538 | 72 | 163 | 0.0 | 0.0 | 0.00 | 0.34 | 0.00 | 85 | 1014.1 |
| 20260831053434 | 72 | 163 | 0.0 | 0.0 | 0.00 | 0.34 | 0.00 | 85 | 1014.1 |
| 20260831053330 | 72 | 163 | 0.0 | 0.0 | 0.00 | 0.34 | 0.00 | 85 | 1014.1 |
| 20260831053226 | 72 | 163 | 0.0 | 0.0 | 0.00 | 0.34 | 0.00 | 85 | 1014.1 |
| 20260831053123 | 72 | 163 | 0.0 | 0.0 | 0.00 | 0.34 | 0.00 | 85 | 1014.1 |
| 20260831053019 | 72 | 163 | 0.0 | 0.0 | 0.00 | 0.34 | 0.00 | 85 | 1014.1 |
| 20260831052916 | 72 | 163 | 0.0 | 0.0 | 0.00 | 0.34 | 0.00 | 85 | 1014.1 |
| 20260831052813 | 72 | 163 | 0.0 | 0.0 | 0.00 | 0.34 | 0.00 | 85 | 1014.2 |
| 20260831052710 | 72 | 163 | 0.0 | 0.0 | 0.00 | 0.34 | 0.00 | 85 | 1014.2 |
| 20260831052124 | 72 | 163 | 0.0 | 0.0 | 0.00 | 0.34 | 0.00 | 85 | 1014.1 |
| 20260831052022 | 72 | 163 | 0.0 | 0.0 | 0.00 | 0.34 | 0.00 | 85 | 1014.1 |
| 20260831051917 | 72 | 163 | 0.0 | 0.0 | 0.00 | 0.34 | 0.00 | 85 | 1014.1 |
| 20260831051815 | 72 | 163 | 0.0 | 0.0 | 0.00 | 0.34 | 0.00 | 85 | 1014.1 |
| 20260831051455 | 72 | 163 | 0.0 | 0.0 | 0.00 | 0.34 | 0.00 | 85 | 1013.9 |
| 20260831051351 | 72 | 163 | 0.0 | 0.0 | 0.00 | 0.34 | 0.00 | 85 | 1013.9 |
| 20260831051245 | 72 | 163 | 0.0 | 0.0 | 0.00 | 0.34 | 0.00 | 85 | 1013.9 |
| 20260831051137 | 72 | 163 | 0.0 | 0.0 | 0.00 | 0.34 | 0.00 | 85 | 1014.0 |
| 20260831051034 | 72 | 163 | 0.0 | 0.0 | 0.00 | 0.34 | 0.00 | 85 | 1013.9 |
| 20260831050929 | 72 | 163 | 0.0 | 0.0 | 0.00 | 0.34 | 0.00 | 85 | 1013.9 |
| 20260831050603 | 72 | 181 | 0.0 | 0.0 | 0.00 | 0.34 | 0.00 | 85 | 1013.9 |
| 20260831050501 | 72 | 181 | 0.0 | 0.0 | 0.00 | 0.34 | 0.00 | 85 | 1013.9 |
| 20260831050358 | 72 | 181 | 0.0 | 0.0 | 0.00 | 0.34 | 0.00 | 85 | 1013.9 |
| 20260831050256 | 72 | 181 | 0.0 | 0.0 | 0.00 | 0.34 | 0.00 | 85 | 1013.9 |
| 20260831050149 | 72 | 181 | 0.0 | 0.0 | 0.00 | 0.34 | 0.00 | 85 | 1014.0 |
| 20260831050042 | 72 | 181 | 0.0 | 0.0 | 0.00 | 0.34 | 0.00 | 85 | 1013.9 |
| 20260831045935 | 72 | 181 | 0.0 | 0.0 | 0.00 | 0.34 | 0.00 | 85 | 1014.0 |